Wetterdaten: Sonntag, 07.08.2016
Datum Zeit Temp. A. Feuchte A. Luftdruck Regen Wind Richtung Richtung Sonnenschein ET UV Solar Taupunkt Windchill Windben Empfang
07.08.2016 00:00 16,7 C 84 % 1026,5 hPa 0,0 l/m 9,4 km/h (2 Bft) SW 236 0 min 0,000 mm 0,0 UV-I 0 W/m 14,0 C 15,2 C 14,5 km/h (3 Bft) 97,56 %
07.08.2016 00:02 16,7 C 84 % 1026,5 hPa 0,0 l/m 11,1 km/h (2 Bft) W-SW 251 0 min 0,000 mm 0,0 UV-I 0 W/m 14,0 C 14,6 C 19,3 km/h (3 Bft) 10,00 %
07.08.2016 00:04 16,8 C 83 % 1026,5 hPa 0,0 l/m 12,5 km/h (3 Bft) SW 228 0 min 0,000 mm 0,0 UV-I 0 W/m 13,9 C 14,2 C 17,7 km/h (3 Bft) 81,25 %
07.08.2016 00:06 16,9 C 83 % 1026,5 hPa 0,0 l/m 9,9 km/h (2 Bft) SW 235 0 min 0,000 mm 0,0 UV-I 0 W/m 14,0 C 15,3 C 14,5 km/h (3 Bft) 97,87 %
07.08.2016 00:08 16,9 C 83 % 1026,5 hPa 0,0 l/m 11,3 km/h (2 Bft) W-SW 251 0 min 0,000 mm 0,0 UV-I 0 W/m 14,0 C 14,7 C 17,7 km/h (3 Bft) 96,00 %
07.08.2016 00:10 16,9 C 83 % 1026,5 hPa 0,0 l/m 12,4 km/h (3 Bft) SW 233 0 min 0,000 mm 0,0 UV-I 0 W/m 14,0 C 14,3 C 19,3 km/h (3 Bft) 97,14 %
07.08.2016 00:12 16,9 C 83 % 1026,5 hPa 0,0 l/m 10,7 km/h (2 Bft) W-SW 251 0 min 0,000 mm 0,0 UV-I 0 W/m 14,0 C 14,9 C 16,1 km/h (3 Bft) 98,00 %
07.08.2016 00:14 16,9 C 83 % 1026,5 hPa 0,0 l/m 8,7 km/h (2 Bft) SW 221 0 min 0,000 mm 0,0 UV-I 0 W/m 14,0 C 15,8 C 14,5 km/h (3 Bft) 98,15 %
07.08.2016 00:16 16,9 C 83 % 1026,5 hPa 0,0 l/m 11,2 km/h (2 Bft) W-SW 244 0 min 0,000 mm 0,0 UV-I 0 W/m 14,0 C 14,8 C 16,1 km/h (3 Bft) 97,37 %
07.08.2016 00:18 16,9 C 83 % 1026,5 hPa 0,0 l/m 10,1 km/h (2 Bft) SW 223 0 min 0,000 mm 0,0 UV-I 0 W/m 14,0 C 15,2 C 17,7 km/h (3 Bft) 95,74 %
07.08.2016 00:20 16,9 C 83 % 1026,5 hPa 0,0 l/m 10,2 km/h (2 Bft) SW 231 0 min 0,000 mm 0,0 UV-I 0 W/m 14,0 C 15,1 C 14,5 km/h (3 Bft) 98,00 %
07.08.2016 00:22 16,9 C 84 % 1026,6 hPa 0,0 l/m 9,4 km/h (2 Bft) W-SW 249 0 min 0,000 mm 0,0 UV-I 0 W/m 14,2 C 15,5 C 12,9 km/h (3 Bft) 96,00 %
07.08.2016 00:24 16,8 C 84 % 1026,6 hPa 0,0 l/m 8,3 km/h (2 Bft) W 259 0 min 0,000 mm 0,0 UV-I 0 W/m 14,1 C 15,8 C 14,5 km/h (3 Bft) 97,56 %
07.08.2016 00:26 16,8 C 84 % 1026,7 hPa 0,0 l/m 8,0 km/h (2 Bft) SW 232 0 min 0,000 mm 0,0 UV-I 0 W/m 14,1 C 16,0 C 12,9 km/h (3 Bft) 96,00 %
07.08.2016 00:28 16,8 C 85 % 1026,7 hPa 0,0 l/m 7,3 km/h (2 Bft) S-SW 210 0 min 0,000 mm 0,0 UV-I 0 W/m 14,3 C 16,3 C 11,3 km/h (2 Bft) 96,00 %
07.08.2016 00:30 16,8 C 85 % 1026,7 hPa 0,0 l/m 8,4 km/h (2 Bft) W 261 0 min 0,000 mm 0,0 UV-I 0 W/m 14,3 C 15,8 C 12,9 km/h (3 Bft) 97,44 %
07.08.2016 00:32 16,7 C 85 % 1026,7 hPa 0,0 l/m 8,8 km/h (2 Bft) W-SW 240 0 min 0,000 mm 0,0 UV-I 0 W/m 14,2 C 15,5 C 14,5 km/h (3 Bft) 97,87 %
07.08.2016 00:34 16,7 C 85 % 1026,7 hPa 0,0 l/m 7,6 km/h (2 Bft) W-SW 251 0 min 0,000 mm 0,0 UV-I 0 W/m 14,2 C 16,1 C 11,3 km/h (2 Bft) 100,00 %
07.08.2016 00:36 16,7 C 85 % 1026,7 hPa 0,0 l/m 7,0 km/h (2 Bft) W 268 0 min 0,000 mm 0,0 UV-I 0 W/m 14,2 C 16,4 C 11,3 km/h (2 Bft) 98,00 %
07.08.2016 00:38 16,7 C 85 % 1026,7 hPa 0,0 l/m 6,7 km/h (2 Bft) W-SW 251 0 min 0,000 mm 0,0 UV-I 0 W/m 14,2 C 16,6 C 9,7 km/h (2 Bft) 95,74 %
07.08.2016 00:40 16,7 C 86 % 1026,8 hPa 0,0 l/m 7,8 km/h (2 Bft) W-SW 256 0 min 0,000 mm 0,0 UV-I 0 W/m 14,3 C 16,0 C 12,9 km/h (3 Bft) 97,37 %
07.08.2016 00:42 16,7 C 86 % 1026,8 hPa 0,0 l/m 8,5 km/h (2 Bft) W-SW 237 0 min 0,000 mm 0,0 UV-I 0 W/m 14,3 C 15,6 C 12,9 km/h (3 Bft) 96,00 %
07.08.2016 00:44 16,7 C 86 % 1026,8 hPa 0,0 l/m 8,0 km/h (2 Bft) W-SW 246 0 min 0,000 mm 0,0 UV-I 0 W/m 14,3 C 15,9 C 12,9 km/h (3 Bft) 100,00 %
07.08.2016 00:46 16,7 C 86 % 1026,8 hPa 0,0 l/m 7,5 km/h (2 Bft) SW 228 0 min 0,000 mm 0,0 UV-I 0 W/m 14,3 C 16,1 C 14,5 km/h (3 Bft) 100,00 %
07.08.2016 00:48 16,6 C 86 % 1026,7 hPa 0,0 l/m 7,2 km/h (2 Bft) W-SW 248 0 min 0,000 mm 0,0 UV-I 0 W/m 14,2 C 16,2 C 11,3 km/h (2 Bft) 98,00 %
07.08.2016 00:50 16,6 C 86 % 1026,7 hPa 0,0 l/m 6,6 km/h (2 Bft) W-SW 239 0 min 0,000 mm 0,0 UV-I 0 W/m 14,2 C 16,5 C 9,7 km/h (2 Bft) 100,00 %
07.08.2016 00:52 16,6 C 86 % 1026,8 hPa 0,0 l/m 5,5 km/h (1 Bft) W-SW 252 0 min 0,000 mm 0,0 UV-I 0 W/m 14,2 C 16,6 C 8,0 km/h (2 Bft) 100,00 %
07.08.2016 00:54 16,6 C 86 % 1026,8 hPa 0,0 l/m 6,6 km/h (2 Bft) W-SW 244 0 min 0,000 mm 0,0 UV-I 0 W/m 14,2 C 16,5 C 9,7 km/h (2 Bft) 100,00 %
07.08.2016 00:56 16,6 C 87 % 1026,8 hPa 0,0 l/m 5,7 km/h (1 Bft) W-SW 242 0 min 0,000 mm 0,0 UV-I 0 W/m 14,4 C 16,6 C 11,3 km/h (2 Bft) 100,00 %
07.08.2016 00:58 16,6 C 86 % 1026,8 hPa 0,0 l/m 5,0 km/h (1 Bft) SW 219 0 min 0,000 mm 0,0 UV-I 0 W/m 14,2 C 16,6 C 8,0 km/h (2 Bft) 98,21 %
07.08.2016 01:00 16,6 C 87 % 1026,8 hPa 0,0 l/m 4,6 km/h (1 Bft) SW 226 0 min 0,025 mm 0,0 UV-I 0 W/m 14,4 C 16,6 C 6,4 km/h (2 Bft) 100,00 %
07.08.2016 01:02 16,5 C 87 % 1026,8 hPa 0,0 l/m 5,5 km/h (1 Bft) W-SW 243 0 min 0,000 mm 0,0 UV-I 0 W/m 14,3 C 16,5 C 8,0 km/h (2 Bft) 100,00 %
07.08.2016 01:04 16,4 C 87 % 1026,8 hPa 0,0 l/m 5,6 km/h (1 Bft) SW 230 0 min 0,000 mm 0,0 UV-I 0 W/m 14,2 C 16,4 C 8,0 km/h (2 Bft) 100,00 %
07.08.2016 01:06 16,4 C 87 % 1026,8 hPa 0,0 l/m 4,4 km/h (1 Bft) SW 221 0 min 0,000 mm 0,0 UV-I 0 W/m 14,2 C 16,4 C 8,0 km/h (2 Bft) 100,00 %
07.08.2016 01:08 16,4 C 87 % 1026,8 hPa 0,0 l/m 5,7 km/h (1 Bft) SW 219 0 min 0,000 mm 0,0 UV-I 0 W/m 14,2 C 16,4 C 8,0 km/h (2 Bft) 100,00 %
07.08.2016 01:10 16,3 C 88 % 1026,7 hPa 0,0 l/m 6,4 km/h (2 Bft) S-SW 209 0 min 0,000 mm 0,0 UV-I 0 W/m 14,3 C 16,3 C 8,0 km/h (2 Bft) 100,00 %
07.08.2016 01:12 16,3 C 87 % 1026,7 hPa 0,0 l/m 5,6 km/h (1 Bft) W-SW 238 0 min 0,000 mm 0,0 UV-I 0 W/m 14,1 C 16,3 C 8,0 km/h (2 Bft) 100,00 %
07.08.2016 01:14 16,3 C 87 % 1026,7 hPa 0,0 l/m 3,8 km/h (1 Bft) SW 221 0 min 0,000 mm 0,0 UV-I 0 W/m 14,1 C 16,3 C 6,4 km/h (2 Bft) 98,11 %
07.08.2016 01:16 16,3 C 88 % 1026,7 hPa 0,0 l/m 5,5 km/h (1 Bft) SW 236 0 min 0,000 mm 0,0 UV-I 0 W/m 14,3 C 16,3 C 8,0 km/h (2 Bft) 100,00 %
07.08.2016 01:18 16,3 C 87 % 1026,7 hPa 0,0 l/m 4,7 km/h (1 Bft) SW 236 0 min 0,000 mm 0,0 UV-I 0 W/m 14,1 C 16,3 C 8,0 km/h (2 Bft) 97,87 %
07.08.2016 01:20 16,3 C 87 % 1026,7 hPa 0,0 l/m 4,7 km/h (1 Bft) SW 219 0 min 0,000 mm 0,0 UV-I 0 W/m 14,1 C 16,3 C 6,4 km/h (2 Bft) 100,00 %
07.08.2016 01:22 16,3 C 87 % 1026,7 hPa 0,0 l/m 5,8 km/h (2 Bft) SW 233 0 min 0,000 mm 0,0 UV-I 0 W/m 14,1 C 16,3 C 8,0 km/h (2 Bft) 100,00 %
07.08.2016 01:24 16,3 C 87 % 1026,7 hPa 0,0 l/m 6,0 km/h (2 Bft) SW 233 0 min 0,000 mm 0,0 UV-I 0 W/m 14,1 C 16,3 C 8,0 km/h (2 Bft) 100,00 %
07.08.2016 01:26 16,2 C 88 % 1026,7 hPa 0,0 l/m 6,7 km/h (2 Bft) SW 227 0 min 0,000 mm 0,0 UV-I 0 W/m 14,2 C 16,1 C 9,7 km/h (2 Bft) 100,00 %
07.08.2016 01:28 16,2 C 88 % 1026,6 hPa 0,0 l/m 6,9 km/h (2 Bft) SW 231 0 min 0,000 mm 0,0 UV-I 0 W/m 14,2 C 15,9 C 12,9 km/h (3 Bft) 100,00 %
07.08.2016 01:30 16,2 C 88 % 1026,6 hPa 0,0 l/m 5,8 km/h (2 Bft) S-SW 213 0 min 0,000 mm 0,0 UV-I 0 W/m 14,2 C 16,2 C 11,3 km/h (2 Bft) 100,00 %
07.08.2016 01:32 16,1 C 88 % 1026,6 hPa 0,0 l/m 8,4 km/h (2 Bft) S-SW 211 0 min 0,000 mm 0,0 UV-I 0 W/m 14,1 C 15,1 C 12,9 km/h (3 Bft) 100,00 %
07.08.2016 01:34 16,1 C 88 % 1026,6 hPa 0,0 l/m 6,8 km/h (2 Bft) SW 218 0 min 0,000 mm 0,0 UV-I 0 W/m 14,1 C 15,9 C 9,7 km/h (2 Bft) 97,87 %
07.08.2016 01:36 16,1 C 88 % 1026,6 hPa 0,0 l/m 6,8 km/h (2 Bft) SW 229 0 min 0,000 mm 0,0 UV-I 0 W/m 14,1 C 15,9 C 11,3 km/h (2 Bft) 100,00 %
07.08.2016 01:38 16,1 C 88 % 1026,6 hPa 0,0 l/m 5,9 km/h (2 Bft) SW 225 0 min 0,000 mm 0,0 UV-I 0 W/m 14,1 C 16,1 C 8,0 km/h (2 Bft) 97,56 %
07.08.2016 01:40 16,0 C 88 % 1026,7 hPa 0,0 l/m 5,7 km/h (1 Bft) W-SW 240 0 min 0,000 mm 0,0 UV-I 0 W/m 14,0 C 16,0 C 8,0 km/h (2 Bft) 100,00 %
07.08.2016 01:42 16,0 C 88 % 1026,6 hPa 0,0 l/m 6,6 km/h (2 Bft) W-SW 254 0 min 0,000 mm 0,0 UV-I 0 W/m 14,0 C 15,9 C 11,3 km/h (2 Bft) 100,00 %
07.08.2016 01:44 16,0 C 88 % 1026,6 hPa 0,0 l/m 6,8 km/h (2 Bft) W-SW 256 0 min 0,000 mm 0,0 UV-I 0 W/m 14,0 C 15,8 C 12,9 km/h (3 Bft) 100,00 %
07.08.2016 01:46 16,0 C 88 % 1026,6 hPa 0,0 l/m 6,6 km/h (2 Bft) W-SW 256 0 min 0,000 mm 0,0 UV-I 0 W/m 14,0 C 15,9 C 11,3 km/h (2 Bft) 100,00 %
07.08.2016 01:48 16,0 C 88 % 1026,6 hPa 0,0 l/m 6,5 km/h (2 Bft) W-SW 250 0 min 0,000 mm 0,0 UV-I 0 W/m 14,0 C 16,0 C 11,3 km/h (2 Bft) 100,00 %
07.08.2016 01:50 16,0 C 88 % 1026,5 hPa 0,0 l/m 6,9 km/h (2 Bft) SW 229 0 min 0,000 mm 0,0 UV-I 0 W/m 14,0 C 15,7 C 12,9 km/h (3 Bft) 98,08 %
07.08.2016 01:52 15,9 C 88 % 1026,6 hPa 0,0 l/m 7,1 km/h (2 Bft) W-SW 258 0 min 0,000 mm 0,0 UV-I 0 W/m 13,9 C 15,5 C 9,7 km/h (2 Bft) 100,00 %
07.08.2016 01:54 15,9 C 88 % 1026,6 hPa 0,0 l/m 6,4 km/h (2 Bft) SW 224 0 min 0,000 mm 0,0 UV-I 0 W/m 13,9 C 15,9 C 9,7 km/h (2 Bft) 98,21 %
07.08.2016 01:56 15,9 C 88 % 1026,6 hPa 0,0 l/m 6,4 km/h (2 Bft) SW 229 0 min 0,000 mm 0,0 UV-I 0 W/m 13,9 C 15,9 C 8,0 km/h (2 Bft) 100,00 %
07.08.2016 01:58 15,9 C 88 % 1026,5 hPa 0,0 l/m 6,4 km/h (2 Bft) SW 229 0 min 0,000 mm 0,0 UV-I 0 W/m 13,9 C 15,9 C 8,0 km/h (2 Bft) 100,00 %
07.08.2016 02:00 15,8 C 88 % 1026,5 hPa 0,0 l/m 6,8 km/h (2 Bft) SW 226 0 min 0,000 mm 0,0 UV-I 0 W/m 13,8 C 15,6 C 11,3 km/h (2 Bft) 100,00 %
07.08.2016 02:02 15,8 C 88 % 1026,5 hPa 0,0 l/m 6,7 km/h (2 Bft) SW 236 0 min 0,000 mm 0,0 UV-I 0 W/m 13,8 C 15,6 C 9,7 km/h (2 Bft) 97,87 %
07.08.2016 02:04 15,7 C 88 % 1026,6 hPa 0,0 l/m 6,9 km/h (2 Bft) SW 221 0 min 0,000 mm 0,0 UV-I 0 W/m 13,7 C 15,4 C 9,7 km/h (2 Bft) 97,56 %
07.08.2016 02:06 15,7 C 89 % 1026,7 hPa 0,0 l/m 6,4 km/h (2 Bft) SW 235 0 min 0,000 mm 0,0 UV-I 0 W/m 13,9 C 15,7 C 8,0 km/h (2 Bft) 93,62 %
07.08.2016 02:08 15,7 C 89 % 1026,6 hPa 0,0 l/m 6,8 km/h (2 Bft) W-SW 239 0 min 0,000 mm 0,0 UV-I 0 W/m 13,9 C 15,5 C 9,7 km/h (2 Bft) 97,56 %
07.08.2016 02:10 15,6 C 89 % 1026,6 hPa 0,0 l/m 6,1 km/h (2 Bft) SW 232 0 min 0,000 mm 0,0 UV-I 0 W/m 13,8 C 15,6 C 8,0 km/h (2 Bft) 98,00 %
07.08.2016 02:12 15,6 C 89 % 1026,6 hPa 0,0 l/m 5,0 km/h (1 Bft) SW 221 0 min 0,000 mm 0,0 UV-I 0 W/m 13,8 C 15,6 C 8,0 km/h (2 Bft) 96,08 %
07.08.2016 02:14 15,6 C 89 % 1026,6 hPa 0,0 l/m 5,4 km/h (1 Bft) SW 217 0 min 0,000 mm 0,0 UV-I 0 W/m 13,8 C 15,6 C 8,0 km/h (2 Bft) 95,74 %
07.08.2016 02:16 15,6 C 89 % 1026,6 hPa 0,0 l/m 6,1 km/h (2 Bft) SW 215 0 min 0,000 mm 0,0 UV-I 0 W/m 13,8 C 15,6 C 9,7 km/h (2 Bft) 98,00 %
07.08.2016 02:18 15,5 C 89 % 1026,6 hPa 0,0 l/m 6,2 km/h (2 Bft) SW 217 0 min 0,000 mm 0,0 UV-I 0 W/m 13,7 C 15,5 C 8,0 km/h (2 Bft) 96,30 %
07.08.2016 02:20 15,5 C 89 % 1026,5 hPa 0,0 l/m 4,6 km/h (1 Bft) SW 222 0 min 0,000 mm 0,0 UV-I 0 W/m 13,7 C 15,5 C 8,0 km/h (2 Bft) 94,55 %
07.08.2016 02:22 15,4 C 89 % 1026,5 hPa 0,0 l/m 5,3 km/h (1 Bft) SW 228 0 min 0,000 mm 0,0 UV-I 0 W/m 13,6 C 15,4 C 8,0 km/h (2 Bft) 96,43 %
07.08.2016 02:24 15,4 C 89 % 1026,5 hPa 0,0 l/m 6,2 km/h (2 Bft) SW 221 0 min 0,000 mm 0,0 UV-I 0 W/m 13,6 C 15,4 C 9,7 km/h (2 Bft) 100,00 %
07.08.2016 02:26 15,4 C 89 % 1026,5 hPa 0,0 l/m 5,4 km/h (1 Bft) SW 236 0 min 0,000 mm 0,0 UV-I 0 W/m 13,6 C 15,4 C 8,0 km/h (2 Bft) 95,74 %
07.08.2016 02:28 15,4 C 89 % 1026,5 hPa 0,0 l/m 6,0 km/h (2 Bft) S-SW 204 0 min 0,000 mm 0,0 UV-I 0 W/m 13,6 C 15,4 C 9,7 km/h (2 Bft) 97,92 %
07.08.2016 02:30 15,4 C 89 % 1026,5 hPa 0,0 l/m 5,2 km/h (1 Bft) SW 227 0 min 0,000 mm 0,0 UV-I 0 W/m 13,6 C 15,4 C 8,0 km/h (2 Bft) 97,92 %
07.08.2016 02:32 15,3 C 89 % 1026,6 hPa 0,0 l/m 3,6 km/h (1 Bft) SW 229 0 min 0,000 mm 0,0 UV-I 0 W/m 13,5 C 15,3 C 6,4 km/h (2 Bft) 98,00 %
07.08.2016 02:34 15,3 C 89 % 1026,5 hPa 0,0 l/m 4,3 km/h (1 Bft) SW 228 0 min 0,000 mm 0,0 UV-I 0 W/m 13,5 C 15,3 C 6,4 km/h (2 Bft) 100,00 %
07.08.2016 02:36 15,3 C 89 % 1026,5 hPa 0,0 l/m 4,5 km/h (1 Bft) SW 233 0 min 0,000 mm 0,0 UV-I 0 W/m 13,5 C 15,3 C 6,4 km/h (2 Bft) 100,00 %
07.08.2016 02:38 15,3 C 89 % 1026,6 hPa 0,0 l/m 2,8 km/h (1 Bft) SW 234 0 min 0,000 mm 0,0 UV-I 0 W/m 13,5 C 15,3 C 4,8 km/h (1 Bft) 98,11 %
07.08.2016 02:40 15,2 C 89 % 1026,5 hPa 0,0 l/m 1,1 km/h (1 Bft) SW 234 0 min 0,000 mm 0,0 UV-I 0 W/m 13,4 C 15,2 C 3,2 km/h (1 Bft) 100,00 %
07.08.2016 02:42 15,2 C 89 % 1026,6 hPa 0,0 l/m 0,0 km/h (0 Bft) SW 234 0 min 0,000 mm 0,0 UV-I 0 W/m 13,4 C 15,2 C 1,6 km/h (1 Bft) 100,00 %
07.08.2016 02:44 15,2 C 89 % 1026,5 hPa 0,0 l/m 0,5 km/h (0 Bft) SW 234 0 min 0,000 mm 0,0 UV-I 0 W/m 13,4 C 15,2 C 1,6 km/h (1 Bft) 100,00 %
07.08.2016 02:46 15,1 C 90 % 1026,6 hPa 0,0 l/m 0,2 km/h (0 Bft) SW 234 0 min 0,000 mm 0,0 UV-I 0 W/m 13,5 C 15,1 C 1,6 km/h (1 Bft) 100,00 %
07.08.2016 02:48 15,1 C 90 % 1026,6 hPa 0,0 l/m 0,0 km/h (0 Bft) SW 234 0 min 0,000 mm 0,0 UV-I 0 W/m 13,5 C 15,1 C 0,0 km/h (0 Bft) 100,00 %
07.08.2016 02:50 15,0 C 90 % 1026,5 hPa 0,0 l/m 1,1 km/h (1 Bft) SW 234 0 min 0,000 mm 0,0 UV-I 0 W/m 13,4 C 15,0 C 3,2 km/h (1 Bft) 97,87 %
07.08.2016 02:52 14,8 C 90 % 1026,5 hPa 0,0 l/m 2,2 km/h (1 Bft) SW 234 0 min 0,000 mm 0,0 UV-I 0 W/m 13,2 C 14,8 C 3,2 km/h (1 Bft) 100,00 %
07.08.2016 02:54 14,6 C 91 % 1026,5 hPa 0,0 l/m 0,5 km/h (0 Bft) SW 229 0 min 0,000 mm 0,0 UV-I 0 W/m 13,1 C 14,6 C 1,6 km/h (1 Bft) 100,00 %
07.08.2016 02:56 14,4 C 91 % 1026,5 hPa 0,0 l/m 1,4 km/h (1 Bft) SW 229 0 min 0,000 mm 0,0 UV-I 0 W/m 12,9 C 14,4 C 3,2 km/h (1 Bft) 100,00 %
07.08.2016 02:58 14,3 C 91 % 1026,5 hPa 0,0 l/m 2,0 km/h (1 Bft) S-SW 207 0 min 0,000 mm 0,0 UV-I 0 W/m 12,8 C 14,3 C 3,2 km/h (1 Bft) 100,00 %
07.08.2016 03:00 14,3 C 92 % 1026,5 hPa 0,0 l/m 1,4 km/h (1 Bft) S-SW 203 0 min 0,000 mm 0,0 UV-I 0 W/m 13,0 C 14,3 C 3,2 km/h (1 Bft) 100,00 %
07.08.2016 03:02 14,3 C 92 % 1026,6 hPa 0,0 l/m 1,6 km/h (1 Bft) S-SW 202 0 min 0,000 mm 0,0 UV-I 0 W/m 13,0 C 14,3 C 3,2 km/h (1 Bft) 98,00 %
07.08.2016 03:04 14,2 C 92 % 1026,6 hPa 0,0 l/m 1,6 km/h (1 Bft) S-SW 202 0 min 0,000 mm 0,0 UV-I 0 W/m 12,9 C 14,2 C 3,2 km/h (1 Bft) 100,00 %
07.08.2016 03:06 14,1 C 92 % 1026,6 hPa 0,0 l/m 1,9 km/h (1 Bft) S-SW 202 0 min 0,000 mm 0,0 UV-I 0 W/m 12,8 C 14,1 C 3,2 km/h (1 Bft) 100,00 %
07.08.2016 03:08 14,1 C 93 % 1026,6 hPa 0,0 l/m 1,8 km/h (1 Bft) S-SW 202 0 min 0,000 mm 0,0 UV-I 0 W/m 13,0 C 14,1 C 3,2 km/h (1 Bft) 100,00 %
07.08.2016 03:10 14,0 C 93 % 1026,6 hPa 0,0 l/m 2,8 km/h (1 Bft) S-SW 202 0 min 0,000 mm 0,0 UV-I 0 W/m 12,9 C 14,0 C 4,8 km/h (1 Bft) 94,74 %
07.08.2016 03:12 13,9 C 93 % 1026,6 hPa 0,0 l/m 3,7 km/h (1 Bft) S-SW 202 0 min 0,000 mm 0,0 UV-I 0 W/m 12,8 C 13,9 C 4,8 km/h (1 Bft) 100,00 %
07.08.2016 03:14 13,9 C 93 % 1026,6 hPa 0,0 l/m 2,6 km/h (1 Bft) S 190 0 min 0,000 mm 0,0 UV-I 0 W/m 12,8 C 13,9 C 4,8 km/h (1 Bft) 100,00 %
07.08.2016 03:16 13,9 C 94 % 1026,5 hPa 0,0 l/m 1,0 km/h (0 Bft) S 190 0 min 0,000 mm 0,0 UV-I 0 W/m 12,9 C 13,9 C 1,6 km/h (1 Bft) 100,00 %
07.08.2016 03:18 13,9 C 93 % 1026,5 hPa 0,0 l/m 0,6 km/h (0 Bft) S 190 0 min 0,000 mm 0,0 UV-I 0 W/m 12,8 C 13,9 C 1,6 km/h (1 Bft) 97,56 %
07.08.2016 03:20 13,9 C 93 % 1026,6 hPa 0,0 l/m 0,9 km/h (0 Bft) S 190 0 min 0,000 mm 0,0 UV-I 0 W/m 12,8 C 13,9 C 3,2 km/h (1 Bft) 100,00 %
07.08.2016 03:22 13,9 C 94 % 1026,5 hPa 0,0 l/m 2,7 km/h (1 Bft) S 190 0 min 0,000 mm 0,0 UV-I 0 W/m 12,9 C 13,9 C 3,2 km/h (1 Bft) 100,00 %
07.08.2016 03:24 13,9 C 94 % 1026,6 hPa 0,0 l/m 2,5 km/h (1 Bft) S 190 0 min 0,000 mm 0,0 UV-I 0 W/m 12,9 C 13,9 C 3,2 km/h (1 Bft) 100,00 %
07.08.2016 03:26 14,0 C 94 % 1026,5 hPa 0,0 l/m 2,5 km/h (1 Bft) S 190 0 min 0,000 mm 0,0 UV-I 0 W/m 13,0 C 14,0 C 4,8 km/h (1 Bft) 97,37 %
07.08.2016 03:28 14,1 C 94 % 1026,5 hPa 0,0 l/m 2,3 km/h (1 Bft) S 190 0 min 0,000 mm 0,0 UV-I 0 W/m 13,1 C 14,1 C 3,2 km/h (1 Bft) 100,00 %
07.08.2016 03:30 13,9 C 93 % 1026,5 hPa 0,0 l/m 2,3 km/h (1 Bft) S 190 0 min 0,000 mm 0,0 UV-I 0 W/m 12,8 C 13,9 C 4,8 km/h (1 Bft) 100,00 %
07.08.2016 03:32 13,9 C 93 % 1026,5 hPa 0,0 l/m 2,4 km/h (1 Bft) S 190 0 min 0,000 mm 0,0 UV-I 0 W/m 12,8 C 13,9 C 3,2 km/h (1 Bft) 100,00 %
07.08.2016 03:34 13,8 C 93 % 1026,6 hPa 0,0 l/m 1,5 km/h (1 Bft) S 190 0 min 0,000 mm 0,0 UV-I 0 W/m 12,7 C 13,8 C 3,2 km/h (1 Bft) 100,00 %
07.08.2016 03:36 13,8 C 94 % 1026,6 hPa 0,0 l/m 0,0 km/h (0 Bft) S 190 0 min 0,000 mm 0,0 UV-I 0 W/m 12,9 C 13,8 C 0,0 km/h (0 Bft) 96,00 %
07.08.2016 03:38 13,8 C 94 % 1026,6 hPa 0,0 l/m 0,3 km/h (0 Bft) S 190 0 min 0,000 mm 0,0 UV-I 0 W/m 12,9 C 13,8 C 1,6 km/h (1 Bft) 100,00 %
07.08.2016 03:40 13,7 C 94 % 1026,5 hPa 0,0 l/m 1,0 km/h (0 Bft) S 190 0 min 0,000 mm 0,0 UV-I 0 W/m 12,8 C 13,7 C 1,6 km/h (1 Bft) 100,00 %
07.08.2016 03:42 13,7 C 94 % 1026,6 hPa 0,0 l/m 0,5 km/h (0 Bft) S 190 0 min 0,000 mm 0,0 UV-I 0 W/m 12,8 C 13,7 C 1,6 km/h (1 Bft) 100,00 %
07.08.2016 03:44 13,6 C 94 % 1026,5 hPa 0,0 l/m 0,2 km/h (0 Bft) S 190 0 min 0,000 mm 0,0 UV-I 0 W/m 12,7 C 13,6 C 1,6 km/h (1 Bft) 100,00 %
07.08.2016 03:46 13,4 C 94 % 1026,6 hPa 0,0 l/m 0,2 km/h (0 Bft) S 190 0 min 0,000 mm 0,0 UV-I 0 W/m 12,5 C 13,4 C 1,6 km/h (1 Bft) 100,00 %
07.08.2016 03:48 13,4 C 94 % 1026,6 hPa 0,0 l/m 0,3 km/h (0 Bft) S 190 0 min 0,000 mm 0,0 UV-I 0 W/m 12,5 C 13,4 C 1,6 km/h (1 Bft) 100,00 %
07.08.2016 03:50 13,4 C 94 % 1026,6 hPa 0,0 l/m 0,1 km/h (0 Bft) S 190 0 min 0,000 mm 0,0 UV-I 0 W/m 12,5 C 13,4 C 1,6 km/h (1 Bft) 100,00 %
07.08.2016 03:52 13,5 C 95 % 1026,7 hPa 0,0 l/m 0,4 km/h (0 Bft) S 190 0 min 0,000 mm 0,0 UV-I 0 W/m 12,7 C 13,5 C 1,6 km/h (1 Bft) 98,11 %
07.08.2016 03:54 13,6 C 94 % 1026,6 hPa 0,0 l/m 0,2 km/h (0 Bft) S 190 0 min 0,000 mm 0,0 UV-I 0 W/m 12,7 C 13,6 C 1,6 km/h (1 Bft) 100,00 %
07.08.2016 03:56 13,6 C 94 % 1026,6 hPa 0,0 l/m 0,1 km/h (0 Bft) S 190 0 min 0,000 mm 0,0 UV-I 0 W/m 12,7 C 13,6 C 1,6 km/h (1 Bft) 97,87 %
07.08.2016 03:58 13,6 C 94 % 1026,6 hPa 0,0 l/m 0,1 km/h (0 Bft) S 190 0 min 0,000 mm 0,0 UV-I 0 W/m 12,7 C 13,6 C 1,6 km/h (1 Bft) 100,00 %
07.08.2016 04:00 13,6 C 94 % 1026,6 hPa 0,0 l/m 1,6 km/h (1 Bft) S 190 0 min 0,000 mm 0,0 UV-I 0 W/m 12,7 C 13,6 C 3,2 km/h (1 Bft) 97,37 %
07.08.2016 04:02 13,4 C 94 % 1026,7 hPa 0,0 l/m 1,7 km/h (1 Bft) S 190 0 min 0,000 mm 0,0 UV-I 0 W/m 12,5 C 13,4 C 3,2 km/h (1 Bft) 100,00 %
07.08.2016 04:04 13,3 C 94 % 1026,6 hPa 0,0 l/m 1,5 km/h (1 Bft) S 190 0 min 0,000 mm 0,0 UV-I 0 W/m 12,4 C 13,3 C 3,2 km/h (1 Bft) 98,11 %
07.08.2016 04:06 13,3 C 94 % 1026,5 hPa 0,0 l/m 1,6 km/h (1 Bft) S 190 0 min 0,000 mm 0,0 UV-I 0 W/m 12,4 C 13,3 C 3,2 km/h (1 Bft) 97,87 %
07.08.2016 04:08 13,2 C 95 % 1026,6 hPa 0,0 l/m 2,1 km/h (1 Bft) S 190 0 min 0,000 mm 0,0 UV-I 0 W/m 12,4 C 13,2 C 3,2 km/h (1 Bft) 95,45 %
07.08.2016 04:10 13,2 C 95 % 1026,6 hPa 0,0 l/m 1,9 km/h (1 Bft) S 190 0 min 0,000 mm 0,0 UV-I 0 W/m 12,4 C 13,2 C 3,2 km/h (1 Bft) 98,11 %
07.08.2016 04:12 13,1 C 95 % 1026,6 hPa 0,0 l/m 2,1 km/h (1 Bft) S-SW 196 0 min 0,000 mm 0,0 UV-I 0 W/m 12,3 C 13,1 C 3,2 km/h (1 Bft) 97,87 %
07.08.2016 04:14 13,1 C 95 % 1026,7 hPa 0,0 l/m 3,6 km/h (1 Bft) SW 229 0 min 0,000 mm 0,0 UV-I 0 W/m 12,3 C 13,1 C 4,8 km/h (1 Bft) 97,87 %
07.08.2016 04:16 13,1 C 95 % 1026,6 hPa 0,0 l/m 3,8 km/h (1 Bft) SW 229 0 min 0,000 mm 0,0 UV-I 0 W/m 12,3 C 13,1 C 4,8 km/h (1 Bft) 97,56 %
07.08.2016 04:18 13,1 C 95 % 1026,7 hPa 0,0 l/m 3,4 km/h (1 Bft) SW 229 0 min 0,000 mm 0,0 UV-I 0 W/m 12,3 C 13,1 C 4,8 km/h (1 Bft) 98,00 %
07.08.2016 04:20 13,1 C 95 % 1026,6 hPa 0,0 l/m 1,6 km/h (1 Bft) SW 229 0 min 0,000 mm 0,0 UV-I 0 W/m 12,3 C 13,1 C 3,2 km/h (1 Bft) 98,00 %
07.08.2016 04:22 13,1 C 95 % 1026,6 hPa 0,0 l/m 2,0 km/h (1 Bft) SW 229 0 min 0,000 mm 0,0 UV-I 0 W/m 12,3 C 13,1 C 3,2 km/h (1 Bft) 97,22 %
07.08.2016 04:24 13,2 C 95 % 1026,7 hPa 0,0 l/m 1,3 km/h (1 Bft) SW 229 0 min 0,000 mm 0,0 UV-I 0 W/m 12,4 C 13,2 C 3,2 km/h (1 Bft) 97,37 %
07.08.2016 04:26 13,1 C 95 % 1026,7 hPa 0,0 l/m 0,0 km/h (0 Bft) SW 229 0 min 0,000 mm 0,0 UV-I 0 W/m 12,3 C 13,1 C 0,0 km/h (0 Bft) 96,72 %
07.08.2016 04:28 13,1 C 95 % 1026,7 hPa 0,0 l/m 0,0 km/h (0 Bft) SW 229 0 min 0,000 mm 0,0 UV-I 0 W/m 12,3 C 13,1 C 1,6 km/h (1 Bft) 97,92 %
07.08.2016 04:30 13,1 C 95 % 1026,7 hPa 0,0 l/m 0,0 km/h (0 Bft) SW 229 0 min 0,000 mm 0,0 UV-I 0 W/m 12,3 C 13,1 C 0,0 km/h (0 Bft) 97,87 %
07.08.2016 04:32 13,1 C 95 % 1026,7 hPa 0,0 l/m 0,0 km/h (0 Bft) SW 229 0 min 0,000 mm 0,0 UV-I 0 W/m 12,3 C 13,1 C 0,0 km/h (0 Bft) 97,87 %
07.08.2016 04:34 13,1 C 95 % 1026,7 hPa 0,0 l/m 0,0 km/h (0 Bft) SW 229 0 min 0,000 mm 0,0 UV-I 0 W/m 12,3 C 13,1 C 0,0 km/h (0 Bft) 97,87 %
07.08.2016 04:36 13,2 C 95 % 1026,7 hPa 0,0 l/m 0,1 km/h (0 Bft) SW 229 0 min 0,000 mm 0,0 UV-I 0 W/m 12,4 C 13,2 C 1,6 km/h (1 Bft) 100,00 %
07.08.2016 04:38 13,2 C 95 % 1026,7 hPa 0,0 l/m 0,1 km/h (0 Bft) SW 229 0 min 0,000 mm 0,0 UV-I 0 W/m 12,4 C 13,2 C 1,6 km/h (1 Bft) 100,00 %
07.08.2016 04:40 13,2 C 95 % 1026,7 hPa 0,0 l/m 0,0 km/h (0 Bft) SW 229 0 min 0,000 mm 0,0 UV-I 0 W/m 12,4 C 13,2 C 0,0 km/h (0 Bft) 100,00 %
07.08.2016 04:42 13,2 C 95 % 1026,7 hPa 0,0 l/m 0,1 km/h (0 Bft) SW 229 0 min 0,000 mm 0,0 UV-I 0 W/m 12,4 C 13,2 C 1,6 km/h (1 Bft) 97,87 %
07.08.2016 04:44 13,2 C 95 % 1026,7 hPa 0,0 l/m 0,8 km/h (0 Bft) SW 229 0 min 0,000 mm 0,0 UV-I 0 W/m 12,4 C 13,2 C 3,2 km/h (1 Bft) 98,11 %
07.08.2016 04:46 13,2 C 95 % 1026,7 hPa 0,0 l/m 1,1 km/h (1 Bft) SW 229 0 min 0,000 mm 0,0 UV-I 0 W/m 12,4 C 13,2 C 3,2 km/h (1 Bft) 100,00 %
07.08.2016 04:48 13,3 C 96 % 1026,7 hPa 0,0 l/m 2,0 km/h (1 Bft) SW 229 0 min 0,000 mm 0,0 UV-I 0 W/m 12,7 C 13,3 C 3,2 km/h (1 Bft) 98,00 %
07.08.2016 04:50 13,2 C 95 % 1026,7 hPa 0,0 l/m 1,1 km/h (1 Bft) SW 229 0 min 0,000 mm 0,0 UV-I 0 W/m 12,4 C 13,2 C 1,6 km/h (1 Bft) 100,00 %
07.08.2016 04:52 13,1 C 95 % 1026,8 hPa 0,0 l/m 0,2 km/h (0 Bft) SW 229 0 min 0,000 mm 0,0 UV-I 0 W/m 12,3 C 13,1 C 1,6 km/h (1 Bft) 100,00 %
07.08.2016 04:54 13,0 C 94 % 1026,8 hPa 0,0 l/m 0,0 km/h (0 Bft) SW 229 0 min 0,000 mm 0,0 UV-I 0 W/m 12,1 C 13,0 C 0,0 km/h (0 Bft) 95,74 %
07.08.2016 04:56 12,9 C 95 % 1026,8 hPa 0,0 l/m 0,1 km/h (0 Bft) SW 229 0 min 0,000 mm 0,0 UV-I 0 W/m 12,1 C 12,9 C 1,6 km/h (1 Bft) 98,00 %
07.08.2016 04:58 12,8 C 95 % 1026,8 hPa 0,0 l/m 0,1 km/h (0 Bft) SW 229 0 min 0,000 mm 0,0 UV-I 0 W/m 12,0 C 12,8 C 1,6 km/h (1 Bft) 100,00 %
07.08.2016 05:00 12,8 C 95 % 1026,8 hPa 0,0 l/m 1,5 km/h (1 Bft) SW 229 0 min 0,000 mm 0,0 UV-I 0 W/m 12,0 C 12,8 C 3,2 km/h (1 Bft) 97,62 %
07.08.2016 05:02 12,8 C 95 % 1026,8 hPa 0,0 l/m 1,5 km/h (1 Bft) SW 229 0 min 0,000 mm 0,0 UV-I 0 W/m 12,0 C 12,8 C 3,2 km/h (1 Bft) 100,00 %
07.08.2016 05:04 12,8 C 95 % 1026,7 hPa 0,0 l/m 2,2 km/h (1 Bft) SW 229 0 min 0,000 mm 0,0 UV-I 0 W/m 12,0 C 12,8 C 3,2 km/h (1 Bft) 100,00 %
07.08.2016 05:06 12,8 C 95 % 1026,7 hPa 0,0 l/m 2,6 km/h (1 Bft) SW 229 0 min 0,000 mm 0,0 UV-I 0 W/m 12,0 C 12,8 C 4,8 km/h (1 Bft) 98,00 %
07.08.2016 05:08 12,8 C 95 % 1026,7 hPa 0,0 l/m 2,7 km/h (1 Bft) SW 229 0 min 0,000 mm 0,0 UV-I 0 W/m 12,0 C 12,8 C 4,8 km/h (1 Bft) 100,00 %
07.08.2016 05:10 12,8 C 95 % 1026,7 hPa 0,0 l/m 2,5 km/h (1 Bft) SW 229 0 min 0,000 mm 0,0 UV-I 0 W/m 12,0 C 12,8 C 4,8 km/h (1 Bft) 98,11 %
07.08.2016 05:12 12,8 C 95 % 1026,7 hPa 0,0 l/m 3,4 km/h (1 Bft) SW 223 0 min 0,000 mm 0,0 UV-I 0 W/m 12,0 C 12,8 C 4,8 km/h (1 Bft) 100,00 %
07.08.2016 05:14 12,8 C 95 % 1026,7 hPa 0,0 l/m 4,0 km/h (1 Bft) SW 217 0 min 0,000 mm 0,0 UV-I 0 W/m 12,0 C 12,8 C 4,8 km/h (1 Bft) 100,00 %
07.08.2016 05:16 12,8 C 95 % 1026,7 hPa 0,0 l/m 3,2 km/h (1 Bft) SW 217 0 min 0,000 mm 0,0 UV-I 0 W/m 12,0 C 12,8 C 4,8 km/h (1 Bft) 100,00 %
07.08.2016 05:18 12,8 C 95 % 1026,7 hPa 0,0 l/m 3,0 km/h (1 Bft) SW 217 0 min 0,000 mm 0,0 UV-I 0 W/m 12,0 C 12,8 C 4,8 km/h (1 Bft) 100,00 %
07.08.2016 05:20 12,8 C 95 % 1026,7 hPa 0,0 l/m 2,2 km/h (1 Bft) SW 217 0 min 0,000 mm 0,0 UV-I 0 W/m 12,0 C 12,8 C 3,2 km/h (1 Bft) 100,00 %
07.08.2016 05:22 12,8 C 95 % 1026,7 hPa 0,0 l/m 2,2 km/h (1 Bft) SW 217 0 min 0,000 mm 0,0 UV-I 0 W/m 12,0 C 12,8 C 3,2 km/h (1 Bft) 100,00 %
07.08.2016 05:24 12,8 C 95 % 1026,7 hPa 0,0 l/m 3,2 km/h (1 Bft) S-SW 207 0 min 0,000 mm 0,0 UV-I 0 W/m 12,0 C 12,8 C 4,8 km/h (1 Bft) 100,00 %
07.08.2016 05:26 12,8 C 95 % 1026,7 hPa 0,0 l/m 2,7 km/h (1 Bft) S-SW 207 0 min 0,000 mm 0,0 UV-I 0 W/m 12,0 C 12,8 C 4,8 km/h (1 Bft) 100,00 %
07.08.2016 05:28 12,8 C 95 % 1026,6 hPa 0,0 l/m 1,8 km/h (1 Bft) S-SW 207 0 min 0,000 mm 0,0 UV-I 0 W/m 12,0 C 12,8 C 3,2 km/h (1 Bft) 100,00 %
07.08.2016 05:30 12,8 C 95 % 1026,6 hPa 0,0 l/m 2,1 km/h (1 Bft) S-SW 207 0 min 0,000 mm 0,0 UV-I 0 W/m 12,0 C 12,8 C 3,2 km/h (1 Bft) 97,87 %
07.08.2016 05:32 12,8 C 96 % 1026,6 hPa 0,0 l/m 2,2 km/h (1 Bft) S-SW 207 0 min 0,000 mm 0,0 UV-I 0 W/m 12,2 C 12,8 C 4,8 km/h (1 Bft) 98,11 %
07.08.2016 05:34 12,9 C 96 % 1026,6 hPa 0,0 l/m 4,1 km/h (1 Bft) S-SW 193 0 min 0,000 mm 0,0 UV-I 0 W/m 12,3 C 12,9 C 6,4 km/h (2 Bft) 100,00 %
07.08.2016 05:36 12,9 C 96 % 1026,6 hPa 0,0 l/m 4,2 km/h (1 Bft) S 186 0 min 0,000 mm 0,0 UV-I 0 W/m 12,3 C 12,9 C 6,4 km/h (2 Bft) 100,00 %
07.08.2016 05:38 13,0 C 96 % 1026,7 hPa 0,0 l/m 2,8 km/h (1 Bft) S 186 0 min 0,000 mm 0,0 UV-I 0 W/m 12,4 C 13,0 C 4,8 km/h (1 Bft) 100,00 %
07.08.2016 05:40 13,0 C 95 % 1026,7 hPa 0,0 l/m 2,7 km/h (1 Bft) S 186 0 min 0,000 mm 0,0 UV-I 0 W/m 12,2 C 13,0 C 4,8 km/h (1 Bft) 98,00 %
07.08.2016 05:42 13,0 C 96 % 1026,7 hPa 0,0 l/m 2,7 km/h (1 Bft) S 186 0 min 0,000 mm 0,0 UV-I 0 W/m 12,4 C 13,0 C 4,8 km/h (1 Bft) 100,00 %
07.08.2016 05:44 13,1 C 96 % 1026,7 hPa 0,0 l/m 4,2 km/h (1 Bft) S-SW 202 0 min 0,000 mm 0,0 UV-I 0 W/m 12,5 C 13,1 C 6,4 km/h (2 Bft) 100,00 %
07.08.2016 05:46 13,1 C 95 % 1026,7 hPa 0,0 l/m 4,3 km/h (1 Bft) S-SW 202 0 min 0,000 mm 0,0 UV-I 5 W/m 12,3 C 13,1 C 6,4 km/h (2 Bft) 100,00 %
07.08.2016 05:48 13,1 C 95 % 1026,7 hPa 0,0 l/m 5,2 km/h (1 Bft) S-SW 205 0 min 0,000 mm 0,0 UV-I 5 W/m 12,3 C 13,1 C 6,4 km/h (2 Bft) 97,87 %
07.08.2016 05:50 13,1 C 95 % 1026,7 hPa 0,0 l/m 5,0 km/h (1 Bft) S-SW 199 0 min 0,000 mm 0,0 UV-I 5 W/m 12,3 C 13,1 C 6,4 km/h (2 Bft) 97,73 %
07.08.2016 05:52 13,1 C 95 % 1026,7 hPa 0,0 l/m 4,1 km/h (1 Bft) S-SW 195 0 min 0,000 mm 0,0 UV-I 7 W/m 12,3 C 13,1 C 6,4 km/h (2 Bft) 100,00 %
07.08.2016 05:54 13,2 C 95 % 1026,8 hPa 0,0 l/m 4,2 km/h (1 Bft) S-SW 195 0 min 0,000 mm 0,0 UV-I 8 W/m 12,4 C 13,2 C 6,4 km/h (2 Bft) 100,00 %
07.08.2016 05:56 13,2 C 95 % 1026,8 hPa 0,0 l/m 3,4 km/h (1 Bft) S-SW 196 0 min 0,000 mm 0,0 UV-I 9 W/m 12,4 C 13,2 C 4,8 km/h (1 Bft) 100,00 %
07.08.2016 05:58 13,2 C 95 % 1026,8 hPa 0,0 l/m 3,4 km/h (1 Bft) S-SW 197 0 min 0,000 mm 0,0 UV-I 10 W/m 12,4 C 13,2 C 4,8 km/h (1 Bft) 100,00 %
07.08.2016 06:00 13,2 C 95 % 1026,8 hPa 0,0 l/m 3,7 km/h (1 Bft) S-SW 197 2 min 0,000 mm 0,0 UV-I 11 W/m 12,4 C 13,2 C 4,8 km/h (1 Bft) 100,00 %
07.08.2016 06:02 13,2 C 95 % 1026,8 hPa 0,0 l/m 3,7 km/h (1 Bft) S-SW 197 0 min 0,000 mm 0,0 UV-I 12 W/m 12,4 C 13,2 C 4,8 km/h (1 Bft) 96,23 %
07.08.2016 06:04 13,3 C 95 % 1026,8 hPa 0,0 l/m 3,5 km/h (1 Bft) S-SW 196 0 min 0,000 mm 0,0 UV-I 12 W/m 12,5 C 13,3 C 4,8 km/h (1 Bft) 98,11 %
07.08.2016 06:06 13,3 C 94 % 1026,8 hPa 0,0 l/m 3,8 km/h (1 Bft) S-SW 196 0 min 0,000 mm 0,0 UV-I 14 W/m 12,4 C 13,3 C 4,8 km/h (1 Bft) 94,74 %
07.08.2016 06:08 13,3 C 94 % 1026,8 hPa 0,0 l/m 4,6 km/h (1 Bft) S-SW 199 0 min 0,000 mm 0,0 UV-I 15 W/m 12,4 C 13,3 C 6,4 km/h (2 Bft) 98,00 %
07.08.2016 06:10 13,3 C 94 % 1026,8 hPa 0,0 l/m 3,2 km/h (1 Bft) S-SW 195 0 min 0,000 mm 0,0 UV-I 16 W/m 12,4 C 13,3 C 4,8 km/h (1 Bft) 95,74 %
07.08.2016 06:12 13,3 C 94 % 1026,8 hPa 0,0 l/m 4,3 km/h (1 Bft) S-SW 205 0 min 0,000 mm 0,0 UV-I 18 W/m 12,4 C 13,3 C 6,4 km/h (2 Bft) 96,00 %
07.08.2016 06:14 13,3 C 94 % 1026,9 hPa 0,0 l/m 4,7 km/h (1 Bft) S-SW 209 0 min 0,000 mm 0,0 UV-I 18 W/m 12,4 C 13,3 C 6,4 km/h (2 Bft) 97,87 %
07.08.2016 06:16 13,3 C 94 % 1026,9 hPa 0,0 l/m 3,9 km/h (1 Bft) S-SW 205 0 min 0,000 mm 0,0 UV-I 19 W/m 12,4 C 13,3 C 6,4 km/h (2 Bft) 98,00 %
07.08.2016 06:18 13,3 C 94 % 1026,9 hPa 0,0 l/m 3,7 km/h (1 Bft) S-SW 213 0 min 0,000 mm 0,0 UV-I 20 W/m 12,4 C 13,3 C 6,4 km/h (2 Bft) 94,74 %
07.08.2016 06:20 13,4 C 94 % 1026,8 hPa 0,0 l/m 4,0 km/h (1 Bft) S-SW 207 0 min 0,000 mm 0,0 UV-I 21 W/m 12,5 C 13,4 C 6,4 km/h (2 Bft) 98,00 %
07.08.2016 06:22 13,4 C 94 % 1026,9 hPa 0,0 l/m 4,1 km/h (1 Bft) SW 226 0 min 0,000 mm 0,0 UV-I 23 W/m 12,5 C 13,4 C 4,8 km/h (1 Bft) 97,87 %
07.08.2016 06:24 13,4 C 94 % 1026,9 hPa 0,0 l/m 3,3 km/h (1 Bft) SW 223 0 min 0,000 mm 0,0 UV-I 24 W/m 12,5 C 13,4 C 6,4 km/h (2 Bft) 95,92 %
07.08.2016 06:26 13,4 C 94 % 1027,0 hPa 0,0 l/m 2,4 km/h (1 Bft) SW 223 0 min 0,000 mm 0,0 UV-I 25 W/m 12,5 C 13,4 C 3,2 km/h (1 Bft) 95,92 %
07.08.2016 06:28 13,4 C 94 % 1027,1 hPa 0,0 l/m 1,5 km/h (1 Bft) SW 223 0 min 0,000 mm 0,0 UV-I 26 W/m 12,5 C 13,4 C 4,8 km/h (1 Bft) 97,92 %
07.08.2016 06:30 13,5 C 94 % 1027,1 hPa 0,0 l/m 0,3 km/h (0 Bft) SW 223 0 min 0,000 mm 0,0 UV-I 27 W/m 12,6 C 13,5 C 1,6 km/h (1 Bft) 97,14 %
07.08.2016 06:32 13,4 C 94 % 1027,1 hPa 0,0 l/m 0,4 km/h (0 Bft) SW 223 0 min 0,000 mm 0,0 UV-I 30 W/m 12,5 C 13,4 C 1,6 km/h (1 Bft) 92,86 %
07.08.2016 06:34 13,4 C 94 % 1027,1 hPa 0,0 l/m 0,8 km/h (0 Bft) SW 223 0 min 0,000 mm 0,0 UV-I 30 W/m 12,5 C 13,4 C 1,6 km/h (1 Bft) 98,00 %
07.08.2016 06:36 13,3 C 94 % 1027,1 hPa 0,0 l/m 0,7 km/h (0 Bft) SW 223 0 min 0,000 mm 0,0 UV-I 32 W/m 12,4 C 13,3 C 1,6 km/h (1 Bft) 100,00 %
07.08.2016 06:38 13,3 C 94 % 1027,1 hPa 0,0 l/m 0,2 km/h (0 Bft) SW 223 0 min 0,000 mm 0,0 UV-I 32 W/m 12,4 C 13,3 C 1,6 km/h (1 Bft) 97,87 %
07.08.2016 06:40 13,3 C 94 % 1027,2 hPa 0,0 l/m 0,7 km/h (0 Bft) SW 223 0 min 0,000 mm 0,0 UV-I 33 W/m 12,4 C 13,3 C 1,6 km/h (1 Bft) 97,87 %
07.08.2016 06:42 13,3 C 95 % 1027,2 hPa 0,0 l/m 0,0 km/h (0 Bft) SW 223 0 min 0,000 mm 0,0 UV-I 34 W/m 12,5 C 13,3 C 0,0 km/h (0 Bft) 100,00 %
07.08.2016 06:44 13,4 C 95 % 1027,2 hPa 0,0 l/m 0,6 km/h (0 Bft) SW 223 0 min 0,000 mm 0,0 UV-I 35 W/m 12,6 C 13,4 C 1,6 km/h (1 Bft) 98,00 %
07.08.2016 06:46 13,4 C 95 % 1027,2 hPa 0,0 l/m 1,2 km/h (1 Bft) SW 223 0 min 0,000 mm 0,0 UV-I 35 W/m 12,6 C 13,4 C 3,2 km/h (1 Bft) 100,00 %
07.08.2016 06:48 13,4 C 95 % 1027,3 hPa 0,0 l/m 2,1 km/h (1 Bft) SW 223 0 min 0,000 mm 0,0 UV-I 37 W/m 12,6 C 13,4 C 3,2 km/h (1 Bft) 97,87 %
07.08.2016 06:50 13,4 C 95 % 1027,2 hPa 0,0 l/m 1,3 km/h (1 Bft) SW 223 0 min 0,000 mm 0,0 UV-I 38 W/m 12,6 C 13,4 C 3,2 km/h (1 Bft) 95,74 %
07.08.2016 06:52 13,5 C 95 % 1027,3 hPa 0,0 l/m 2,5 km/h (1 Bft) SW 223 0 min 0,000 mm 0,0 UV-I 39 W/m 12,7 C 13,5 C 4,8 km/h (1 Bft) 97,37 %
07.08.2016 06:54 13,6 C 95 % 1027,4 hPa 0,0 l/m 1,9 km/h (1 Bft) SW 223 0 min 0,000 mm 0,0 UV-I 39 W/m 12,8 C 13,6 C 3,2 km/h (1 Bft) 100,00 %
07.08.2016 06:56 13,6 C 95 % 1027,4 hPa 0,0 l/m 2,8 km/h (1 Bft) SW 223 0 min 0,000 mm 0,0 UV-I 40 W/m 12,8 C 13,6 C 4,8 km/h (1 Bft) 97,87 %
07.08.2016 06:58 13,7 C 94 % 1027,4 hPa 0,0 l/m 2,5 km/h (1 Bft) SW 223 0 min 0,000 mm 0,0 UV-I 54 W/m 12,8 C 13,7 C 4,8 km/h (1 Bft) 100,00 %
07.08.2016 07:00 13,7 C 94 % 1027,4 hPa 0,0 l/m 2,7 km/h (1 Bft) SW 223 0 min 0,026 mm 0,0 UV-I 92 W/m 12,8 C 13,7 C 4,8 km/h (1 Bft) 98,18 %
07.08.2016 07:02 13,7 C 94 % 1027,4 hPa 0,0 l/m 2,2 km/h (1 Bft) SW 223 0 min 0,000 mm 0,0 UV-I 99 W/m 12,8 C 13,7 C 3,2 km/h (1 Bft) 97,92 %
07.08.2016 07:04 13,8 C 94 % 1027,4 hPa 0,0 l/m 1,5 km/h (1 Bft) SW 223 2 min 0,000 mm 0,0 UV-I 106 W/m 12,9 C 13,8 C 3,2 km/h (1 Bft) 98,00 %
07.08.2016 07:06 13,8 C 94 % 1027,4 hPa 0,0 l/m 2,3 km/h (1 Bft) SW 223 2 min 0,000 mm 0,0 UV-I 112 W/m 12,9 C 13,8 C 3,2 km/h (1 Bft) 97,96 %
07.08.2016 07:08 13,9 C 94 % 1027,4 hPa 0,0 l/m 2,8 km/h (1 Bft) SW 223 2 min 0,000 mm 0,0 UV-I 113 W/m 12,9 C 13,9 C 4,8 km/h (1 Bft) 95,83 %
07.08.2016 07:10 14,0 C 94 % 1027,4 hPa 0,0 l/m 2,6 km/h (1 Bft) SW 223 2 min 0,000 mm 0,0 UV-I 116 W/m 13,0 C 14,0 C 4,8 km/h (1 Bft) 100,00 %
07.08.2016 07:12 14,1 C 94 % 1027,4 hPa 0,0 l/m 2,8 km/h (1 Bft) SW 223 2 min 0,000 mm 0,0 UV-I 118 W/m 13,1 C 14,1 C 4,8 km/h (1 Bft) 100,00 %
07.08.2016 07:14 14,2 C 94 % 1027,4 hPa 0,0 l/m 3,3 km/h (1 Bft) SW 223 0 min 0,000 mm 0,0 UV-I 120 W/m 13,2 C 14,2 C 4,8 km/h (1 Bft) 98,00 %
07.08.2016 07:16 14,3 C 94 % 1027,4 hPa 0,0 l/m 3,8 km/h (1 Bft) W 265 0 min 0,000 mm 0,0 UV-I 123 W/m 13,3 C 14,3 C 6,4 km/h (2 Bft) 97,56 %
07.08.2016 07:18 14,3 C 93 % 1027,4 hPa 0,0 l/m 5,0 km/h (1 Bft) W-SW 240 0 min 0,000 mm 0,0 UV-I 126 W/m 13,2 C 14,3 C 6,4 km/h (2 Bft) 98,11 %
07.08.2016 07:20 14,4 C 93 % 1027,4 hPa 0,0 l/m 3,8 km/h (1 Bft) W 261 2 min 0,000 mm 0,0 UV-I 133 W/m 13,3 C 14,4 C 9,7 km/h (2 Bft) 97,37 %
07.08.2016 07:22 14,6 C 93 % 1027,4 hPa 0,0 l/m 4,8 km/h (1 Bft) W-SW 244 2 min 0,000 mm 0,0 UV-I 141 W/m 13,5 C 14,6 C 6,4 km/h (2 Bft) 100,00 %
07.08.2016 07:24 14,7 C 93 % 1027,4 hPa 0,0 l/m 5,2 km/h (1 Bft) W-SW 255 2 min 0,000 mm 0,0 UV-I 151 W/m 13,6 C 14,7 C 9,7 km/h (2 Bft) 100,00 %
07.08.2016 07:26 14,7 C 93 % 1027,4 hPa 0,0 l/m 5,5 km/h (1 Bft) W-SW 251 2 min 0,000 mm 0,0 UV-I 161 W/m 13,6 C 14,7 C 11,3 km/h (2 Bft) 100,00 %
07.08.2016 07:28 14,8 C 92 % 1027,4 hPa 0,0 l/m 5,0 km/h (1 Bft) W 274 2 min 0,000 mm 0,0 UV-I 172 W/m 13,5 C 14,8 C 11,3 km/h (2 Bft) 100,00 %
07.08.2016 07:30 14,8 C 92 % 1027,4 hPa 0,0 l/m 6,1 km/h (2 Bft) W-NW 300 2 min 0,000 mm 0,0 UV-I 181 W/m 13,5 C 14,8 C 12,9 km/h (3 Bft) 100,00 %
07.08.2016 07:32 14,9 C 92 % 1027,5 hPa 0,0 l/m 5,9 km/h (2 Bft) SW 228 2 min 0,000 mm 0,0 UV-I 188 W/m 13,6 C 14,9 C 9,7 km/h (2 Bft) 97,37 %
07.08.2016 07:34 15,0 C 92 % 1027,5 hPa 0,0 l/m 6,7 km/h (2 Bft) W 269 2 min 0,000 mm 0,0 UV-I 194 W/m 13,7 C 14,8 C 11,3 km/h (2 Bft) 100,00 %
07.08.2016 07:36 15,1 C 91 % 1027,5 hPa 0,0 l/m 8,3 km/h (2 Bft) W 260 2 min 0,000 mm 0,0 UV-I 199 W/m 13,6 C 14,0 C 14,5 km/h (3 Bft) 97,87 %
07.08.2016 07:38 15,1 C 91 % 1027,5 hPa 0,0 l/m 5,3 km/h (1 Bft) SW 234 2 min 0,000 mm 0,0 UV-I 202 W/m 13,6 C 15,1 C 9,7 km/h (2 Bft) 97,56 %
07.08.2016 07:40 15,2 C 91 % 1027,5 hPa 0,0 l/m 4,6 km/h (1 Bft) W-SW 250 2 min 0,000 mm 0,1 UV-I 206 W/m 13,7 C 15,2 C 6,4 km/h (2 Bft) 100,00 %
07.08.2016 07:42 15,2 C 91 % 1027,5 hPa 0,0 l/m 5,3 km/h (1 Bft) W-SW 247 2 min 0,000 mm 0,5 UV-I 212 W/m 13,7 C 15,2 C 11,3 km/h (2 Bft) 100,00 %
07.08.2016 07:44 15,3 C 91 % 1027,5 hPa 0,0 l/m 4,8 km/h (1 Bft) W-SW 247 2 min 0,000 mm 0,5 UV-I 217 W/m 13,8 C 15,3 C 8,0 km/h (2 Bft) 100,00 %
07.08.2016 07:46 15,3 C 90 % 1027,5 hPa 0,0 l/m 4,4 km/h (1 Bft) W-NW 301 2 min 0,000 mm 0,5 UV-I 222 W/m 13,7 C 15,3 C 9,7 km/h (2 Bft) 100,00 %
07.08.2016 07:48 15,4 C 90 % 1027,5 hPa 0,0 l/m 8,2 km/h (2 Bft) W-SW 256 2 min 0,000 mm 0,5 UV-I 228 W/m 13,8 C 14,4 C 16,1 km/h (3 Bft) 97,73 %
07.08.2016 07:50 15,5 C 90 % 1027,6 hPa 0,0 l/m 7,0 km/h (2 Bft) W-NW 284 2 min 0,000 mm 0,6 UV-I 234 W/m 13,9 C 15,2 C 14,5 km/h (3 Bft) 100,00 %
07.08.2016 07:52 15,5 C 89 % 1027,6 hPa 0,0 l/m 5,2 km/h (1 Bft) W-SW 241 2 min 0,000 mm 0,6 UV-I 238 W/m 13,7 C 15,5 C 11,3 km/h (2 Bft) 100,00 %
07.08.2016 07:54 15,6 C 89 % 1027,6 hPa 0,0 l/m 6,7 km/h (2 Bft) W-SW 238 2 min 0,000 mm 0,6 UV-I 244 W/m 13,8 C 15,4 C 12,9 km/h (3 Bft) 100,00 %
07.08.2016 07:56 15,7 C 89 % 1027,6 hPa 0,0 l/m 7,0 km/h (2 Bft) W 264 2 min 0,000 mm 0,6 UV-I 250 W/m 13,9 C 15,4 C 11,3 km/h (2 Bft) 100,00 %
07.08.2016 07:58 15,7 C 89 % 1027,6 hPa 0,0 l/m 5,8 km/h (2 Bft) W-SW 248 2 min 0,000 mm 0,7 UV-I 251 W/m 13,9 C 15,7 C 9,7 km/h (2 Bft) 100,00 %
07.08.2016 08:00 15,7 C 89 % 1027,6 hPa 0,0 l/m 4,6 km/h (1 Bft) W 271 2 min 0,101 mm 0,7 UV-I 248 W/m 13,9 C 15,7 C 9,7 km/h (2 Bft) 100,00 %
07.08.2016 08:02 15,7 C 89 % 1027,6 hPa 0,0 l/m 4,9 km/h (1 Bft) W-SW 254 2 min 0,000 mm 0,7 UV-I 245 W/m 13,9 C 15,7 C 9,7 km/h (2 Bft) 100,00 %
07.08.2016 08:04 15,8 C 89 % 1027,6 hPa 0,0 l/m 4,8 km/h (1 Bft) W 259 2 min 0,000 mm 0,7 UV-I 241 W/m 14,0 C 15,8 C 8,0 km/h (2 Bft) 100,00 %
07.08.2016 08:06 15,9 C 88 % 1027,7 hPa 0,0 l/m 6,2 km/h (2 Bft) SW 232 2 min 0,000 mm 0,8 UV-I 237 W/m 13,9 C 15,9 C 9,7 km/h (2 Bft) 100,00 %
07.08.2016 08:08 16,0 C 88 % 1027,8 hPa 0,0 l/m 4,6 km/h (1 Bft) W-SW 258 2 min 0,000 mm 0,8 UV-I 234 W/m 14,0 C 16,0 C 8,0 km/h (2 Bft) 94,00 %
07.08.2016 08:10 16,1 C 88 % 1027,8 hPa 0,0 l/m 5,5 km/h (1 Bft) W 263 2 min 0,000 mm 0,8 UV-I 234 W/m 14,1 C 16,1 C 8,0 km/h (2 Bft) 100,00 %
07.08.2016 08:12 16,1 C 87 % 1027,8 hPa 0,0 l/m 8,4 km/h (2 Bft) W-SW 244 2 min 0,000 mm 0,9 UV-I 240 W/m 13,9 C 15,1 C 12,9 km/h (3 Bft) 94,00 %
07.08.2016 08:14 16,2 C 88 % 1027,8 hPa 0,0 l/m 4,3 km/h (1 Bft) W 261 2 min 0,000 mm 0,9 UV-I 251 W/m 14,2 C 16,2 C 9,7 km/h (2 Bft) 98,00 %
07.08.2016 08:16 16,3 C 88 % 1027,7 hPa 0,0 l/m 4,0 km/h (1 Bft) W-SW 255 2 min 0,000 mm 0,9 UV-I 265 W/m 14,3 C 16,3 C 6,4 km/h (2 Bft) 97,87 %
07.08.2016 08:18 16,4 C 88 % 1027,7 hPa 0,0 l/m 6,3 km/h (2 Bft) W 267 2 min 0,000 mm 0,9 UV-I 280 W/m 14,4 C 16,4 C 9,7 km/h (2 Bft) 94,87 %
07.08.2016 08:20 16,6 C 87 % 1027,8 hPa 0,0 l/m 5,2 km/h (1 Bft) W-SW 254 2 min 0,000 mm 1,0 UV-I 292 W/m 14,4 C 16,6 C 11,3 km/h (2 Bft) 95,74 %
07.08.2016 08:22 16,7 C 87 % 1027,8 hPa 0,0 l/m 8,4 km/h (2 Bft) W-SW 238 2 min 0,000 mm 1,0 UV-I 309 W/m 14,5 C 15,7 C 12,9 km/h (3 Bft) 98,00 %
07.08.2016 08:24 16,7 C 85 % 1027,9 hPa 0,0 l/m 6,7 km/h (2 Bft) W 279 2 min 0,000 mm 1,0 UV-I 320 W/m 14,2 C 16,6 C 12,9 km/h (3 Bft) 93,18 %
07.08.2016 08:26 16,7 C 86 % 1027,8 hPa 0,0 l/m 5,3 km/h (1 Bft) W 276 2 min 0,000 mm 1,1 UV-I 325 W/m 14,3 C 16,7 C 8,0 km/h (2 Bft) 95,74 %
07.08.2016 08:28 16,7 C 84 % 1027,9 hPa 0,0 l/m 5,1 km/h (1 Bft) W-SW 244 2 min 0,000 mm 1,1 UV-I 330 W/m 14,0 C 16,7 C 9,7 km/h (2 Bft) 92,00 %
07.08.2016 08:30 16,7 C 85 % 1027,8 hPa 0,0 l/m 5,5 km/h (1 Bft) SW 223 2 min 0,000 mm 1,1 UV-I 335 W/m 14,2 C 16,7 C 11,3 km/h (2 Bft) 97,87 %
07.08.2016 08:32 16,7 C 84 % 1027,9 hPa 0,0 l/m 8,3 km/h (2 Bft) SW 236 2 min 0,000 mm 1,2 UV-I 343 W/m 14,0 C 15,7 C 12,9 km/h (3 Bft) 96,23 %
07.08.2016 08:34 16,7 C 84 % 1027,9 hPa 0,0 l/m 9,5 km/h (2 Bft) W-SW 241 2 min 0,000 mm 1,2 UV-I 347 W/m 14,0 C 15,2 C 16,1 km/h (3 Bft) 94,74 %
07.08.2016 08:36 16,8 C 84 % 1027,9 hPa 0,0 l/m 7,5 km/h (2 Bft) W 262 2 min 0,000 mm 1,2 UV-I 349 W/m 14,1 C 16,2 C 12,9 km/h (3 Bft) 97,87 %
07.08.2016 08:38 16,8 C 84 % 1027,9 hPa 0,0 l/m 4,3 km/h (1 Bft) W-SW 252 2 min 0,000 mm 1,3 UV-I 352 W/m 14,1 C 16,8 C 11,3 km/h (2 Bft) 98,00 %
07.08.2016 08:40 16,8 C 83 % 1027,9 hPa 0,0 l/m 7,7 km/h (2 Bft) W-SW 249 2 min 0,000 mm 1,3 UV-I 350 W/m 13,9 C 16,1 C 12,9 km/h (3 Bft) 95,12 %
07.08.2016 08:42 16,8 C 84 % 1027,9 hPa 0,0 l/m 7,5 km/h (2 Bft) SW 236 2 min 0,000 mm 1,3 UV-I 351 W/m 14,1 C 16,2 C 11,3 km/h (2 Bft) 100,00 %
07.08.2016 08:44 16,8 C 83 % 1027,9 hPa 0,0 l/m 8,6 km/h (2 Bft) W-NW 285 2 min 0,000 mm 1,4 UV-I 347 W/m 13,9 C 15,7 C 14,5 km/h (3 Bft) 100,00 %
07.08.2016 08:46 16,8 C 84 % 1027,9 hPa 0,0 l/m 7,8 km/h (2 Bft) W 269 2 min 0,000 mm 1,4 UV-I 341 W/m 14,1 C 16,1 C 12,9 km/h (3 Bft) 98,11 %
07.08.2016 08:48 16,9 C 84 % 1027,9 hPa 0,0 l/m 5,7 km/h (1 Bft) SW 233 2 min 0,000 mm 1,4 UV-I 336 W/m 14,2 C 16,9 C 11,3 km/h (2 Bft) 100,00 %
07.08.2016 08:50 17,1 C 83 % 1027,9 hPa 0,0 l/m 8,2 km/h (2 Bft) SW 232 2 min 0,000 mm 1,5 UV-I 333 W/m 14,2 C 16,2 C 12,9 km/h (3 Bft) 100,00 %
07.08.2016 08:52 17,1 C 84 % 1027,9 hPa 0,0 l/m 7,9 km/h (2 Bft) W-SW 256 2 min 0,000 mm 1,5 UV-I 331 W/m 14,4 C 16,4 C 11,3 km/h (2 Bft) 100,00 %
07.08.2016 08:54 17,2 C 84 % 1027,9 hPa 0,0 l/m 6,8 km/h (2 Bft) SW 223 2 min 0,000 mm 1,6 UV-I 331 W/m 14,5 C 17,0 C 12,9 km/h (3 Bft) 100,00 %
07.08.2016 08:56 17,2 C 83 % 1027,9 hPa 0,0 l/m 10,2 km/h (2 Bft) W-SW 258 2 min 0,000 mm 1,6 UV-I 337 W/m 14,3 C 15,5 C 14,5 km/h (3 Bft) 100,00 %
07.08.2016 08:58 17,2 C 82 % 1027,9 hPa 0,0 l/m 9,5 km/h (2 Bft) W 269 2 min 0,000 mm 1,6 UV-I 337 W/m 14,1 C 15,8 C 12,9 km/h (3 Bft) 100,00 %
07.08.2016 09:00 17,2 C 82 % 1027,9 hPa 0,0 l/m 9,9 km/h (2 Bft) W-SW 249 2 min 0,178 mm 1,7 UV-I 328 W/m 14,1 C 15,6 C 14,5 km/h (3 Bft) 100,00 %
07.08.2016 09:02 17,2 C 82 % 1027,9 hPa 0,0 l/m 9,9 km/h (2 Bft) W-SW 254 2 min 0,000 mm 1,7 UV-I 319 W/m 14,1 C 15,6 C 14,5 km/h (3 Bft) 100,00 %
07.08.2016 09:04 17,4 C 82 % 1027,9 hPa 0,0 l/m 9,2 km/h (2 Bft) W-SW 257 2 min 0,000 mm 1,8 UV-I 312 W/m 14,3 C 16,1 C 14,5 km/h (3 Bft) 100,00 %
07.08.2016 09:06 17,4 C 82 % 1027,9 hPa 0,0 l/m 11,0 km/h (2 Bft) W-SW 256 2 min 0,000 mm 1,8 UV-I 312 W/m 14,3 C 15,4 C 16,1 km/h (3 Bft) 100,00 %
07.08.2016 09:08 17,4 C 82 % 1027,9 hPa 0,0 l/m 8,0 km/h (2 Bft) W-SW 254 2 min 0,000 mm 1,9 UV-I 317 W/m 14,3 C 16,6 C 12,9 km/h (3 Bft) 100,00 %
07.08.2016 09:10 17,6 C 83 % 1027,9 hPa 0,0 l/m 6,0 km/h (2 Bft) SW 236 2 min 0,000 mm 1,9 UV-I 329 W/m 14,7 C 17,6 C 9,7 km/h (2 Bft) 100,00 %
07.08.2016 09:12 17,7 C 83 % 1027,9 hPa 0,0 l/m 6,1 km/h (2 Bft) W 263 2 min 0,000 mm 2,0 UV-I 352 W/m 14,8 C 17,7 C 9,7 km/h (2 Bft) 100,00 %
07.08.2016 09:14 17,7 C 81 % 1027,9 hPa 0,0 l/m 6,6 km/h (2 Bft) SW 229 2 min 0,000 mm 2,0 UV-I 376 W/m 14,4 C 17,6 C 11,3 km/h (2 Bft) 100,00 %
07.08.2016 09:16 17,8 C 81 % 1027,9 hPa 0,0 l/m 5,4 km/h (1 Bft) SW 222 2 min 0,000 mm 2,0 UV-I 398 W/m 14,5 C 17,8 C 12,9 km/h (3 Bft) 98,00 %
07.08.2016 09:18 17,8 C 83 % 1027,9 hPa 0,0 l/m 5,6 km/h (1 Bft) W 269 2 min 0,000 mm 2,1 UV-I 419 W/m 14,9 C 17,8 C 9,7 km/h (2 Bft) 98,11 %
07.08.2016 09:20 17,9 C 81 % 1027,9 hPa 0,0 l/m 6,9 km/h (2 Bft) W-SW 246 2 min 0,000 mm 2,1 UV-I 435 W/m 14,6 C 17,7 C 14,5 km/h (3 Bft) 100,00 %
07.08.2016 09:22 17,9 C 82 % 1028,0 hPa 0,0 l/m 8,3 km/h (2 Bft) W 264 2 min 0,000 mm 2,2 UV-I 454 W/m 14,8 C 17,0 C 11,3 km/h (2 Bft) 98,00 %
07.08.2016 09:24 17,8 C 81 % 1028,0 hPa 0,0 l/m 5,2 km/h (1 Bft) W 277 2 min 0,000 mm 2,2 UV-I 470 W/m 14,5 C 17,8 C 11,3 km/h (2 Bft) 96,23 %
07.08.2016 09:26 17,9 C 82 % 1028,0 hPa 0,0 l/m 6,1 km/h (2 Bft) SW 230 2 min 0,000 mm 2,3 UV-I 485 W/m 14,8 C 17,9 C 9,7 km/h (2 Bft) 100,00 %
07.08.2016 09:28 18,0 C 82 % 1028,0 hPa 0,0 l/m 4,4 km/h (1 Bft) W-SW 246 2 min 0,000 mm 2,3 UV-I 498 W/m 14,9 C 18,0 C 8,0 km/h (2 Bft) 98,00 %
07.08.2016 09:30 18,1 C 81 % 1028,0 hPa 0,0 l/m 2,1 km/h (1 Bft) SW 220 2 min 0,000 mm 2,4 UV-I 504 W/m 14,8 C 18,1 C 4,8 km/h (1 Bft) 100,00 %
07.08.2016 09:32 18,2 C 82 % 1027,9 hPa 0,0 l/m 3,9 km/h (1 Bft) W-SW 254 2 min 0,000 mm 2,4 UV-I 508 W/m 15,1 C 18,2 C 6,4 km/h (2 Bft) 100,00 %
07.08.2016 09:34 18,2 C 80 % 1027,9 hPa 0,0 l/m 5,8 km/h (2 Bft) S-SW 198 2 min 0,000 mm 2,5 UV-I 525 W/m 14,7 C 18,2 C 9,7 km/h (2 Bft) 100,00 %
07.08.2016 09:36 18,3 C 81 % 1027,9 hPa 0,0 l/m 7,1 km/h (2 Bft) W-SW 237 2 min 0,000 mm 2,5 UV-I 517 W/m 15,0 C 18,0 C 12,9 km/h (3 Bft) 100,00 %
07.08.2016 09:38 18,3 C 80 % 1027,9 hPa 0,0 l/m 4,7 km/h (1 Bft) SW 233 2 min 0,000 mm 2,5 UV-I 523 W/m 14,8 C 18,3 C 8,0 km/h (2 Bft) 100,00 %
07.08.2016 09:40 18,3 C 78 % 1027,9 hPa 0,0 l/m 3,3 km/h (1 Bft) W-SW 239 2 min 0,000 mm 2,6 UV-I 526 W/m 14,4 C 18,3 C 8,0 km/h (2 Bft) 100,00 %
07.08.2016 09:42 18,3 C 80 % 1027,9 hPa 0,0 l/m 6,1 km/h (2 Bft) W-SW 255 2 min 0,000 mm 2,7 UV-I 544 W/m 14,8 C 18,3 C 11,3 km/h (2 Bft) 97,96 %
07.08.2016 09:44 18,5 C 80 % 1027,9 hPa 0,0 l/m 6,1 km/h (2 Bft) W-SW 242 2 min 0,000 mm 2,6 UV-I 549 W/m 15,0 C 18,5 C 11,3 km/h (2 Bft) 97,62 %
07.08.2016 09:46 18,5 C 79 % 1027,9 hPa 0,0 l/m 3,9 km/h (1 Bft) SW 230 2 min 0,000 mm 2,7 UV-I 536 W/m 14,8 C 18,5 C 8,0 km/h (2 Bft) 100,00 %
07.08.2016 09:48 18,7 C 80 % 1027,9 hPa 0,0 l/m 1,4 km/h (1 Bft) W 262 2 min 0,000 mm 2,8 UV-I 557 W/m 15,2 C 18,7 C 3,2 km/h (1 Bft) 100,00 %
07.08.2016 09:50 18,8 C 79 % 1027,9 hPa 0,0 l/m 4,1 km/h (1 Bft) W-SW 252 2 min 0,000 mm 2,8 UV-I 546 W/m 15,1 C 18,8 C 14,5 km/h (3 Bft) 100,00 %
07.08.2016 09:52 18,7 C 78 % 1027,8 hPa 0,0 l/m 7,6 km/h (2 Bft) W-SW 251 2 min 0,000 mm 2,9 UV-I 558 W/m 14,8 C 18,2 C 11,3 km/h (2 Bft) 100,00 %
07.08.2016 09:54 18,7 C 77 % 1027,9 hPa 0,0 l/m 7,9 km/h (2 Bft) W 277 2 min 0,000 mm 3,0 UV-I 584 W/m 14,6 C 18,0 C 12,9 km/h (3 Bft) 100,00 %
07.08.2016 09:56 18,7 C 79 % 1027,9 hPa 0,0 l/m 7,6 km/h (2 Bft) SO 144 2 min 0,000 mm 2,9 UV-I 601 W/m 15,0 C 18,2 C 12,9 km/h (3 Bft) 100,00 %
07.08.2016 09:58 18,7 C 78 % 1027,9 hPa 0,0 l/m 6,1 km/h (2 Bft) W-SW 242 2 min 0,000 mm 2,9 UV-I 601 W/m 14,8 C 18,7 C 14,5 km/h (3 Bft) 100,00 %
07.08.2016 10:00 18,7 C 79 % 1027,8 hPa 0,0 l/m 6,0 km/h (2 Bft) S-SW 202 2 min 0,280 mm 3,1 UV-I 575 W/m 15,0 C 18,7 C 14,5 km/h (3 Bft) 100,00 %
07.08.2016 10:02 18,7 C 78 % 1027,8 hPa 0,0 l/m 10,8 km/h (2 Bft) S-SW 208 2 min 0,000 mm 3,2 UV-I 622 W/m 14,8 C 16,9 C 14,5 km/h (3 Bft) 100,00 %
07.08.2016 10:04 18,8 C 77 % 1027,8 hPa 0,0 l/m 6,9 km/h (2 Bft) S-SW 202 2 min 0,000 mm 3,3 UV-I 639 W/m 14,7 C 18,6 C 12,9 km/h (3 Bft) 97,87 %
07.08.2016 10:06 18,9 C 79 % 1027,8 hPa 0,0 l/m 7,5 km/h (2 Bft) W 277 2 min 0,000 mm 3,2 UV-I 654 W/m 15,2 C 18,4 C 11,3 km/h (2 Bft) 98,00 %
07.08.2016 10:08 19,1 C 77 % 1027,8 hPa 0,0 l/m 5,5 km/h (1 Bft) NW 315 2 min 0,000 mm 2,9 UV-I 646 W/m 15,0 C 19,1 C 9,7 km/h (2 Bft) 98,00 %
07.08.2016 10:10 19,2 C 78 % 1027,8 hPa 0,0 l/m 5,3 km/h (1 Bft) SW 226 2 min 0,000 mm 3,3 UV-I 632 W/m 15,3 C 19,2 C 8,0 km/h (2 Bft) 97,37 %
07.08.2016 10:12 19,2 C 78 % 1027,8 hPa 0,0 l/m 3,8 km/h (1 Bft) SW 223 2 min 0,000 mm 3,4 UV-I 620 W/m 15,3 C 19,2 C 8,0 km/h (2 Bft) 97,87 %
07.08.2016 10:14 19,1 C 77 % 1027,8 hPa 0,0 l/m 4,1 km/h (1 Bft) W 271 2 min 0,000 mm 3,5 UV-I 637 W/m 15,0 C 19,1 C 8,0 km/h (2 Bft) 94,34 %
07.08.2016 10:16 19,3 C 77 % 1027,8 hPa 0,0 l/m 5,6 km/h (1 Bft) W 261 2 min 0,000 mm 3,6 UV-I 654 W/m 15,2 C 19,3 C 16,1 km/h (3 Bft) 97,44 %
07.08.2016 10:18 19,4 C 76 % 1027,9 hPa 0,0 l/m 10,1 km/h (2 Bft) W-SW 250 2 min 0,000 mm 2,9 UV-I 661 W/m 15,1 C 17,9 C 16,1 km/h (3 Bft) 98,00 %
07.08.2016 10:20 19,2 C 75 % 1027,8 hPa 0,0 l/m 9,5 km/h (2 Bft) W-SW 255 0 min 0,000 mm 2,8 UV-I 207 W/m 14,7 C 17,9 C 14,5 km/h (3 Bft) 98,00 %
07.08.2016 10:22 19,1 C 76 % 1027,8 hPa 0,0 l/m 6,1 km/h (2 Bft) W-SW 252 0 min 0,000 mm 3,2 UV-I 241 W/m 14,8 C 19,1 C 11,3 km/h (2 Bft) 98,00 %
07.08.2016 10:24 19,1 C 76 % 1027,8 hPa 0,0 l/m 4,9 km/h (1 Bft) W-SW 242 2 min 0,000 mm 3,7 UV-I 699 W/m 14,8 C 19,1 C 9,7 km/h (2 Bft) 97,56 %
07.08.2016 10:26 19,2 C 77 % 1027,8 hPa 0,0 l/m 7,4 km/h (2 Bft) W-SW 246 2 min 0,000 mm 3,5 UV-I 697 W/m 15,1 C 18,8 C 16,1 km/h (3 Bft) 96,23 %
07.08.2016 10:28 19,3 C 74 % 1027,8 hPa 0,0 l/m 9,1 km/h (2 Bft) W 263 2 min 0,000 mm 3,8 UV-I 724 W/m 14,5 C 18,2 C 14,5 km/h (3 Bft) 93,62 %
07.08.2016 10:30 19,6 C 75 % 1027,8 hPa 0,0 l/m 5,4 km/h (1 Bft) W-NW 283 2 min 0,000 mm 3,9 UV-I 734 W/m 15,0 C 19,6 C 11,3 km/h (2 Bft) 100,00 %
07.08.2016 10:32 19,7 C 74 % 1027,7 hPa 0,0 l/m 7,6 km/h (2 Bft) W-NW 294 2 min 0,000 mm 4,0 UV-I 748 W/m 14,9 C 19,2 C 12,9 km/h (3 Bft) 95,74 %
07.08.2016 10:34 19,6 C 75 % 1027,7 hPa 0,0 l/m 5,0 km/h (1 Bft) W 280 2 min 0,000 mm 3,8 UV-I 743 W/m 15,0 C 19,6 C 12,9 km/h (3 Bft) 95,74 %
07.08.2016 10:36 19,8 C 78 % 1027,7 hPa 0,0 l/m 3,0 km/h (1 Bft) S-SW 203 2 min 0,000 mm 3,6 UV-I 751 W/m 15,8 C 19,8 C 6,4 km/h (2 Bft) 100,00 %
07.08.2016 10:38 19,8 C 75 % 1027,7 hPa 0,0 l/m 6,8 km/h (2 Bft) S 175 2 min 0,000 mm 4,0 UV-I 761 W/m 15,2 C 19,6 C 11,3 km/h (2 Bft) 100,00 %
07.08.2016 10:40 19,8 C 75 % 1027,7 hPa 0,0 l/m 4,5 km/h (1 Bft) SW 224 2 min 0,000 mm 3,7 UV-I 522 W/m 15,2 C 19,8 C 8,0 km/h (2 Bft) 100,00 %
07.08.2016 10:42 19,9 C 75 % 1027,7 hPa 0,0 l/m 2,7 km/h (1 Bft) W 273 2 min 0,000 mm 4,2 UV-I 632 W/m 15,3 C 19,9 C 4,8 km/h (1 Bft) 97,37 %
07.08.2016 10:44 20,0 C 74 % 1027,7 hPa 0,0 l/m 6,3 km/h (2 Bft) SW 232 2 min 0,000 mm 4,2 UV-I 710 W/m 15,2 C 20,0 C 11,3 km/h (2 Bft) 100,00 %
07.08.2016 10:46 20,1 C 73 % 1027,7 hPa 0,0 l/m 7,2 km/h (2 Bft) W-SW 241 2 min 0,000 mm 4,0 UV-I 710 W/m 15,1 C 19,8 C 11,3 km/h (2 Bft) 100,00 %
07.08.2016 10:48 20,1 C 72 % 1027,7 hPa 0,0 l/m 6,8 km/h (2 Bft) S 190 2 min 0,000 mm 4,5 UV-I 762 W/m 14,9 C 19,9 C 11,3 km/h (2 Bft) 100,00 %
07.08.2016 10:50 19,9 C 73 % 1027,7 hPa 0,0 l/m 9,2 km/h (2 Bft) W-SW 248 2 min 0,000 mm 4,4 UV-I 739 W/m 14,9 C 18,8 C 16,1 km/h (3 Bft) 100,00 %
07.08.2016 10:52 20,0 C 72 % 1027,7 hPa 0,0 l/m 9,0 km/h (2 Bft) SW 219 2 min 0,000 mm 4,5 UV-I 761 W/m 14,8 C 19,0 C 14,5 km/h (3 Bft) 97,73 %
07.08.2016 10:54 19,9 C 71 % 1027,7 hPa 0,0 l/m 5,2 km/h (1 Bft) SW 232 2 min 0,000 mm 4,6 UV-I 776 W/m 14,5 C 19,9 C 11,3 km/h (2 Bft) 100,00 %
07.08.2016 10:56 20,1 C 73 % 1027,6 hPa 0,0 l/m 7,0 km/h (2 Bft) S 187 2 min 0,000 mm 4,7 UV-I 817 W/m 15,1 C 19,9 C 12,9 km/h (3 Bft) 97,87 %
07.08.2016 10:58 20,0 C 73 % 1027,6 hPa 0,0 l/m 4,0 km/h (1 Bft) W-SW 245 2 min 0,000 mm 3,1 UV-I 421 W/m 15,0 C 20,0 C 9,7 km/h (2 Bft) 100,00 %
07.08.2016 11:00 20,0 C 74 % 1027,7 hPa 0,0 l/m 8,4 km/h (2 Bft) SW 235 0 min 0,381 mm 3,6 UV-I 227 W/m 15,2 C 19,2 C 14,5 km/h (3 Bft) 100,00 %
07.08.2016 11:02 20,1 C 71 % 1027,7 hPa 0,0 l/m 7,2 km/h (2 Bft) W-NW 292 0 min 0,000 mm 4,8 UV-I 251 W/m 14,7 C 19,8 C 12,9 km/h (3 Bft) 97,87 %
07.08.2016 11:04 20,2 C 69 % 1027,6 hPa 0,0 l/m 5,9 km/h (2 Bft) W-SW 244 2 min 0,000 mm 4,8 UV-I 767 W/m 14,3 C 20,2 C 12,9 km/h (3 Bft) 100,00 %
07.08.2016 11:06 20,4 C 70 % 1027,6 hPa 0,0 l/m 7,5 km/h (2 Bft) W-NW 283 2 min 0,000 mm 4,9 UV-I 762 W/m 14,7 C 20,0 C 12,9 km/h (3 Bft) 100,00 %
07.08.2016 11:08 20,6 C 69 % 1027,6 hPa 0,0 l/m 8,8 km/h (2 Bft) W-SW 243 2 min 0,000 mm 4,9 UV-I 763 W/m 14,7 C 19,7 C 14,5 km/h (3 Bft) 100,00 %
07.08.2016 11:10 20,6 C 69 % 1027,5 hPa 0,0 l/m 5,4 km/h (1 Bft) W 266 2 min 0,000 mm 5,0 UV-I 768 W/m 14,7 C 20,6 C 12,9 km/h (3 Bft) 100,00 %
07.08.2016 11:12 20,5 C 68 % 1027,5 hPa 0,0 l/m 5,7 km/h (1 Bft) SW 234 2 min 0,000 mm 4,5 UV-I 787 W/m 14,4 C 20,5 C 9,7 km/h (2 Bft) 100,00 %
07.08.2016 11:14 20,7 C 74 % 1027,5 hPa 0,0 l/m 4,7 km/h (1 Bft) SW 217 2 min 0,000 mm 4,6 UV-I 759 W/m 15,9 C 20,7 C 9,7 km/h (2 Bft) 98,39 %
07.08.2016 11:16 20,4 C 70 % 1027,5 hPa 0,0 l/m 5,8 km/h (2 Bft) SW 225 0 min 0,000 mm 3,5 UV-I 322 W/m 14,7 C 20,4 C 9,7 km/h (2 Bft) 100,00 %
07.08.2016 11:18 20,2 C 71 % 1027,5 hPa 0,0 l/m 8,1 km/h (2 Bft) W-SW 248 0 min 0,000 mm 4,3 UV-I 176 W/m 14,8 C 19,5 C 12,9 km/h (3 Bft) 97,37 %
07.08.2016 11:20 20,1 C 68 % 1027,5 hPa 0,0 l/m 5,3 km/h (1 Bft) SW 231 0 min 0,000 mm 4,1 UV-I 218 W/m 14,0 C 20,1 C 11,3 km/h (2 Bft) 100,00 %
07.08.2016 11:22 20,3 C 74 % 1027,4 hPa 0,0 l/m 5,8 km/h (2 Bft) W-SW 252 2 min 0,000 mm 5,1 UV-I 799 W/m 15,5 C 20,3 C 11,3 km/h (2 Bft) 100,00 %
07.08.2016 11:24 20,8 C 68 % 1027,4 hPa 0,0 l/m 7,3 km/h (2 Bft) W-NW 298 2 min 0,000 mm 5,4 UV-I 845 W/m 14,7 C 20,5 C 14,5 km/h (3 Bft) 100,00 %
07.08.2016 11:26 20,9 C 67 % 1027,4 hPa 0,0 l/m 6,3 km/h (2 Bft) S-SW 202 2 min 0,000 mm 5,5 UV-I 854 W/m 14,5 C 20,9 C 14,5 km/h (3 Bft) 100,00 %
07.08.2016 11:28 21,1 C 69 % 1027,4 hPa 0,0 l/m 7,4 km/h (2 Bft) W-SW 240 2 min 0,000 mm 5,5 UV-I 841 W/m 15,2 C 20,7 C 19,3 km/h (3 Bft) 100,00 %
07.08.2016 11:30 21,2 C 65 % 1027,4 hPa 0,0 l/m 8,7 km/h (2 Bft) W-SW 252 2 min 0,000 mm 5,4 UV-I 826 W/m 14,4 C 20,4 C 14,5 km/h (3 Bft) 95,74 %
07.08.2016 11:32 21,2 C 67 % 1027,3 hPa 0,0 l/m 8,3 km/h (2 Bft) W-SW 248 2 min 0,000 mm 5,6 UV-I 840 W/m 14,8 C 20,5 C 17,7 km/h (3 Bft) 100,00 %
07.08.2016 11:34 21,2 C 65 % 1027,3 hPa 0,0 l/m 12,7 km/h (3 Bft) W-SW 255 2 min 0,000 mm 5,6 UV-I 819 W/m 14,4 C 19,2 C 17,7 km/h (3 Bft) 100,00 %
07.08.2016 11:36 21,2 C 65 % 1027,3 hPa 0,0 l/m 10,3 km/h (2 Bft) S-SW 205 2 min 0,000 mm 5,6 UV-I 795 W/m 14,4 C 19,9 C 14,5 km/h (3 Bft) 100,00 %
07.08.2016 11:38 21,0 C 63 % 1027,3 hPa 0,0 l/m 9,3 km/h (2 Bft) S-SW 210 2 min 0,000 mm 5,6 UV-I 786 W/m 13,7 C 20,0 C 17,7 km/h (3 Bft) 98,11 %
07.08.2016 11:40 21,1 C 67 % 1027,3 hPa 0,0 l/m 9,8 km/h (2 Bft) W 259 2 min 0,000 mm 5,7 UV-I 798 W/m 14,7 C 19,9 C 17,7 km/h (3 Bft) 98,11 %
07.08.2016 11:42 21,2 C 68 % 1027,2 hPa 0,0 l/m 5,8 km/h (2 Bft) S-SW 212 2 min 0,000 mm 5,7 UV-I 815 W/m 15,1 C 21,2 C 9,7 km/h (2 Bft) 100,00 %
07.08.2016 11:44 21,3 C 67 % 1027,2 hPa 0,0 l/m 3,8 km/h (1 Bft) W-NW 292 2 min 0,000 mm 5,8 UV-I 811 W/m 14,9 C 21,3 C 8,0 km/h (2 Bft) 100,00 %
07.08.2016 11:46 21,3 C 64 % 1027,2 hPa 0,0 l/m 4,3 km/h (1 Bft) W-NW 286 2 min 0,000 mm 5,8 UV-I 809 W/m 14,2 C 21,3 C 9,7 km/h (2 Bft) 100,00 %
07.08.2016 11:48 21,5 C 65 % 1027,3 hPa 0,0 l/m 8,4 km/h (2 Bft) SW 227 2 min 0,000 mm 5,8 UV-I 809 W/m 14,6 C 20,8 C 14,5 km/h (3 Bft) 100,00 %
07.08.2016 11:50 21,7 C 67 % 1027,2 hPa 0,0 l/m 5,3 km/h (1 Bft) N-NW 344 2 min 0,000 mm 4,1 UV-I 818 W/m 15,3 C 21,7 C 12,9 km/h (3 Bft) 98,11 %
07.08.2016 11:52 21,6 C 62 % 1027,2 hPa 0,0 l/m 4,8 km/h (1 Bft) W-SW 258 2 min 0,000 mm 5,6 UV-I 821 W/m 14,0 C 21,6 C 11,3 km/h (2 Bft) 100,00 %
07.08.2016 11:54 21,4 C 63 % 1027,3 hPa 0,0 l/m 9,8 km/h (2 Bft) W-SW 246 2 min 0,000 mm 4,9 UV-I 820 W/m 14,1 C 20,2 C 14,5 km/h (3 Bft) 97,56 %
07.08.2016 11:56 21,2 C 65 % 1027,2 hPa 0,0 l/m 7,1 km/h (2 Bft) SW 228 2 min 0,000 mm 3,8 UV-I 450 W/m 14,4 C 20,9 C 11,3 km/h (2 Bft) 98,11 %
07.08.2016 11:58 21,1 C 64 % 1027,1 hPa 0,0 l/m 4,7 km/h (1 Bft) W 272 2 min 0,000 mm 6,0 UV-I 735 W/m 14,0 C 21,1 C 9,7 km/h (2 Bft) 97,56 %
07.08.2016 12:00 21,3 C 65 % 1027,2 hPa 0,0 l/m 3,7 km/h (1 Bft) W 259 2 min 0,457 mm 6,1 UV-I 858 W/m 14,4 C 21,3 C 9,7 km/h (2 Bft) 97,87 %
07.08.2016 12:02 21,5 C 64 % 1027,2 hPa 0,0 l/m 3,1 km/h (1 Bft) N-NW 333 2 min 0,000 mm 6,1 UV-I 851 W/m 14,4 C 21,5 C 4,8 km/h (1 Bft) 96,00 %
07.08.2016 12:04 21,6 C 64 % 1027,1 hPa 0,0 l/m 3,3 km/h (1 Bft) SW 236 2 min 0,000 mm 5,9 UV-I 841 W/m 14,5 C 21,6 C 6,4 km/h (2 Bft) 97,37 %
07.08.2016 12:06 21,6 C 60 % 1027,2 hPa 0,0 l/m 7,8 km/h (2 Bft) W-NW 292 2 min 0,000 mm 3,8 UV-I 822 W/m 13,5 C 21,1 C 16,1 km/h (3 Bft) 98,21 %
07.08.2016 12:08 21,5 C 63 % 1027,1 hPa 0,0 l/m 9,2 km/h (2 Bft) W-SW 243 2 min 0,000 mm 5,9 UV-I 832 W/m 14,2 C 20,5 C 14,5 km/h (3 Bft) 94,74 %
07.08.2016 12:10 21,6 C 62 % 1027,2 hPa 0,0 l/m 8,2 km/h (2 Bft) W-SW 248 2 min 0,000 mm 6,2 UV-I 848 W/m 14,0 C 21,0 C 16,1 km/h (3 Bft) 98,11 %
07.08.2016 12:12 21,8 C 65 % 1027,1 hPa 0,0 l/m 6,7 km/h (2 Bft) W-NW 283 2 min 0,000 mm 6,2 UV-I 866 W/m 14,9 C 21,7 C 14,5 km/h (3 Bft) 96,23 %
07.08.2016 12:14 21,8 C 61 % 1027,0 hPa 0,0 l/m 6,8 km/h (2 Bft) S 182 2 min 0,000 mm 6,3 UV-I 891 W/m 13,9 C 21,7 C 12,9 km/h (3 Bft) 97,44 %
07.08.2016 12:16 21,8 C 62 % 1027,0 hPa 0,0 l/m 11,0 km/h (2 Bft) SW 215 2 min 0,000 mm 6,4 UV-I 910 W/m 14,2 C 20,4 C 16,1 km/h (3 Bft) 98,11 %
07.08.2016 12:18 21,8 C 62 % 1027,0 hPa 0,0 l/m 7,2 km/h (2 Bft) N-NW 328 2 min 0,000 mm 6,4 UV-I 914 W/m 14,2 C 21,5 C 12,9 km/h (3 Bft) 97,87 %
07.08.2016 12:20 21,9 C 61 % 1027,0 hPa 0,0 l/m 7,8 km/h (2 Bft) NW 319 2 min 0,000 mm 6,4 UV-I 919 W/m 14,0 C 21,4 C 12,9 km/h (3 Bft) 97,37 %
07.08.2016 12:22 22,1 C 60 % 1027,1 hPa 0,0 l/m 7,1 km/h (2 Bft) W-SW 244 2 min 0,000 mm 6,4 UV-I 925 W/m 14,0 C 21,9 C 14,5 km/h (3 Bft) 98,00 %
07.08.2016 12:24 22,0 C 60 % 1027,0 hPa 0,0 l/m 10,9 km/h (2 Bft) W-SW 238 2 min 0,000 mm 6,0 UV-I 879 W/m 13,9 C 20,6 C 16,1 km/h (3 Bft) 98,00 %
07.08.2016 12:26 22,0 C 61 % 1027,0 hPa 0,0 l/m 6,6 km/h (2 Bft) N-NO 12 2 min 0,000 mm 6,5 UV-I 878 W/m 14,1 C 21,9 C 14,5 km/h (3 Bft) 98,00 %
07.08.2016 12:28 22,1 C 60 % 1027,0 hPa 0,0 l/m 4,9 km/h (1 Bft) SW 236 2 min 0,000 mm 6,4 UV-I 867 W/m 14,0 C 22,1 C 16,1 km/h (3 Bft) 97,56 %
07.08.2016 12:30 22,2 C 61 % 1027,0 hPa 0,0 l/m 6,0 km/h (2 Bft) S 171 2 min 0,000 mm 6,4 UV-I 869 W/m 14,3 C 22,2 C 11,3 km/h (2 Bft) 97,87 %
07.08.2016 12:32 22,3 C 60 % 1026,9 hPa 0,0 l/m 4,9 km/h (1 Bft) S-SW 208 2 min 0,000 mm 6,5 UV-I 876 W/m 14,2 C 22,3 C 8,0 km/h (2 Bft) 100,00 %
07.08.2016 12:34 22,5 C 60 % 1026,9 hPa 0,0 l/m 3,0 km/h (1 Bft) NW 314 2 min 0,000 mm 6,5 UV-I 889 W/m 14,3 C 22,5 C 9,7 km/h (2 Bft) 100,00 %
07.08.2016 12:36 22,6 C 59 % 1026,9 hPa 0,0 l/m 8,2 km/h (2 Bft) W 268 2 min 0,000 mm 6,6 UV-I 906 W/m 14,2 C 22,0 C 16,1 km/h (3 Bft) 97,37 %
07.08.2016 12:38 22,6 C 62 % 1026,9 hPa 0,0 l/m 5,1 km/h (1 Bft) W-SW 258 2 min 0,000 mm 5,4 UV-I 921 W/m 14,9 C 22,6 C 14,5 km/h (3 Bft) 98,11 %
07.08.2016 12:40 22,3 C 60 % 1026,9 hPa 0,0 l/m 7,0 km/h (2 Bft) W 261 0 min 0,000 mm 3,6 UV-I 310 W/m 14,2 C 22,1 C 12,9 km/h (3 Bft) 100,00 %
07.08.2016 12:42 21,9 C 60 % 1026,9 hPa 0,0 l/m 11,3 km/h (2 Bft) W-SW 252 0 min 0,000 mm 3,5 UV-I 193 W/m 13,8 C 20,4 C 19,3 km/h (3 Bft) 100,00 %
07.08.2016 12:44 21,7 C 62 % 1026,9 hPa 0,0 l/m 6,5 km/h (2 Bft) W 263 0 min 0,000 mm 5,1 UV-I 435 W/m 14,1 C 21,7 C 14,5 km/h (3 Bft) 100,00 %
07.08.2016 12:46 21,7 C 62 % 1026,9 hPa 0,0 l/m 7,8 km/h (2 Bft) W-SW 248 2 min 0,000 mm 5,4 UV-I 962 W/m 14,1 C 21,2 C 14,5 km/h (3 Bft) 95,74 %
07.08.2016 12:48 21,9 C 61 % 1026,8 hPa 0,0 l/m 4,3 km/h (1 Bft) S-SW 212 2 min 0,000 mm 6,1 UV-I 962 W/m 14,0 C 21,9 C 9,7 km/h (2 Bft) 100,00 %
07.08.2016 12:50 22,1 C 62 % 1026,9 hPa 0,0 l/m 5,1 km/h (1 Bft) S-SW 209 2 min 0,000 mm 6,7 UV-I 958 W/m 14,5 C 22,1 C 8,0 km/h (2 Bft) 100,00 %
07.08.2016 12:52 22,3 C 57 % 1026,9 hPa 0,0 l/m 11,1 km/h (2 Bft) W 265 2 min 0,000 mm 6,7 UV-I 923 W/m 13,4 C 20,9 C 16,1 km/h (3 Bft) 98,21 %
07.08.2016 12:54 22,2 C 54 % 1026,9 hPa 0,0 l/m 4,6 km/h (1 Bft) W 281 2 min 0,000 mm 6,7 UV-I 900 W/m 12,4 C 22,2 C 9,7 km/h (2 Bft) 100,00 %
07.08.2016 12:56 22,3 C 56 % 1026,8 hPa 0,0 l/m 10,7 km/h (2 Bft) W-SW 250 2 min 0,000 mm 6,6 UV-I 892 W/m 13,1 C 21,0 C 16,1 km/h (3 Bft) 98,39 %
07.08.2016 12:58 22,3 C 56 % 1026,8 hPa 0,0 l/m 7,0 km/h (2 Bft) SW 215 2 min 0,000 mm 6,6 UV-I 890 W/m 13,1 C 22,1 C 11,3 km/h (2 Bft) 100,00 %
07.08.2016 13:00 22,4 C 54 % 1026,7 hPa 0,0 l/m 6,2 km/h (2 Bft) SW 229 2 min 0,508 mm 6,7 UV-I 902 W/m 12,6 C 22,4 C 12,9 km/h (3 Bft) 100,00 %
07.08.2016 13:02 22,5 C 59 % 1026,7 hPa 0,0 l/m 8,6 km/h (2 Bft) SW 222 2 min 0,000 mm 6,7 UV-I 905 W/m 14,1 C 21,8 C 16,1 km/h (3 Bft) 100,00 %
07.08.2016 13:04 22,6 C 57 % 1026,7 hPa 0,0 l/m 9,5 km/h (2 Bft) W-NW 290 2 min 0,000 mm 6,7 UV-I 917 W/m 13,6 C 21,6 C 16,1 km/h (3 Bft) 100,00 %
07.08.2016 13:06 22,5 C 55 % 1026,7 hPa 0,0 l/m 13,1 km/h (3 Bft) W-SW 254 2 min 0,000 mm 6,7 UV-I 910 W/m 13,0 C 20,7 C 17,7 km/h (3 Bft) 100,00 %
07.08.2016 13:08 22,7 C 56 % 1026,7 hPa 0,0 l/m 5,8 km/h (2 Bft) W-NW 287 2 min 0,000 mm 6,7 UV-I 901 W/m 13,5 C 22,7 C 12,9 km/h (3 Bft) 98,11 %
07.08.2016 13:10 22,8 C 60 % 1026,8 hPa 0,0 l/m 9,7 km/h (2 Bft) W-SW 254 2 min 0,000 mm 6,7 UV-I 894 W/m 14,6 C 21,8 C 17,7 km/h (3 Bft) 100,00 %
07.08.2016 13:12 22,9 C 57 % 1026,7 hPa 0,0 l/m 12,1 km/h (2 Bft) W 262 2 min 0,000 mm 6,7 UV-I 894 W/m 13,9 C 21,3 C 16,1 km/h (3 Bft) 100,00 %
07.08.2016 13:14 22,8 C 53 % 1026,7 hPa 0,0 l/m 6,7 km/h (2 Bft) S 171 2 min 0,000 mm 6,7 UV-I 893 W/m 12,7 C 22,7 C 12,9 km/h (3 Bft) 100,00 %
07.08.2016 13:16 22,6 C 54 % 1026,6 hPa 0,0 l/m 7,3 km/h (2 Bft) SW 215 2 min 0,000 mm 6,8 UV-I 897 W/m 12,8 C 22,3 C 12,9 km/h (3 Bft) 100,00 %
07.08.2016 13:18 22,6 C 56 % 1026,6 hPa 0,0 l/m 2,9 km/h (1 Bft) W 281 2 min 0,000 mm 6,7 UV-I 902 W/m 13,4 C 22,6 C 8,0 km/h (2 Bft) 100,00 %
07.08.2016 13:20 22,7 C 56 % 1026,6 hPa 0,0 l/m 5,7 km/h (1 Bft) W-NW 287 2 min 0,000 mm 6,7 UV-I 917 W/m 13,5 C 22,7 C 12,9 km/h (3 Bft) 98,39 %
07.08.2016 13:22 22,7 C 56 % 1026,6 hPa 0,0 l/m 8,6 km/h (2 Bft) W 263 2 min 0,000 mm 4,6 UV-I 923 W/m 13,5 C 22,0 C 12,9 km/h (3 Bft) 100,00 %
07.08.2016 13:24 22,7 C 54 % 1026,6 hPa 0,0 l/m 7,9 km/h (2 Bft) SW 223 2 min 0,000 mm 5,0 UV-I 930 W/m 12,9 C 22,2 C 14,5 km/h (3 Bft) 98,51 %
07.08.2016 13:26 22,4 C 54 % 1026,6 hPa 0,0 l/m 6,9 km/h (2 Bft) W-NW 297 2 min 0,000 mm 3,8 UV-I 654 W/m 12,6 C 22,2 C 12,9 km/h (3 Bft) 100,00 %
07.08.2016 13:28 22,5 C 56 % 1026,6 hPa 0,0 l/m 5,6 km/h (1 Bft) W-SW 240 0 min 0,000 mm 6,1 UV-I 197 W/m 13,3 C 22,5 C 9,7 km/h (2 Bft) 97,87 %
07.08.2016 13:30 22,6 C 51 % 1026,5 hPa 0,0 l/m 5,8 km/h (2 Bft) W-NW 284 2 min 0,000 mm 6,7 UV-I 904 W/m 11,9 C 22,6 C 11,3 km/h (2 Bft) 100,00 %
07.08.2016 13:32 22,7 C 53 % 1026,5 hPa 0,0 l/m 9,3 km/h (2 Bft) W-SW 250 2 min 0,000 mm 6,7 UV-I 889 W/m 12,6 C 21,8 C 17,7 km/h (3 Bft) 100,00 %
07.08.2016 13:34 22,9 C 57 % 1026,5 hPa 0,0 l/m 11,8 km/h (2 Bft) NW 311 2 min 0,000 mm 6,6 UV-I 885 W/m 13,9 C 21,4 C 19,3 km/h (3 Bft) 100,00 %
07.08.2016 13:36 23,0 C 52 % 1026,5 hPa 0,0 l/m 8,1 km/h (2 Bft) NW 307 2 min 0,000 mm 6,0 UV-I 868 W/m 12,6 C 22,5 C 14,5 km/h (3 Bft) 100,00 %
07.08.2016 13:38 22,9 C 51 % 1026,5 hPa 0,0 l/m 4,7 km/h (1 Bft) W 278 2 min 0,000 mm 5,7 UV-I 883 W/m 12,2 C 22,9 C 9,7 km/h (2 Bft) 96,00 %
07.08.2016 13:40 22,8 C 56 % 1026,5 hPa 0,0 l/m 6,0 km/h (2 Bft) W 272 2 min 0,000 mm 6,5 UV-I 919 W/m 13,6 C 22,8 C 11,3 km/h (2 Bft) 100,00 %
07.08.2016 13:42 23,0 C 53 % 1026,5 hPa 0,0 l/m 8,9 km/h (2 Bft) SW 219 2 min 0,000 mm 6,4 UV-I 921 W/m 12,9 C 22,2 C 17,7 km/h (3 Bft) 100,00 %
07.08.2016 13:44 23,0 C 52 % 1026,5 hPa 0,0 l/m 8,7 km/h (2 Bft) SW 225 2 min 0,000 mm 6,5 UV-I 915 W/m 12,6 C 22,3 C 17,7 km/h (3 Bft) 100,00 %
07.08.2016 13:46 23,0 C 54 % 1026,5 hPa 0,0 l/m 5,6 km/h (1 Bft) W 281 2 min 0,000 mm 6,4 UV-I 884 W/m 13,2 C 23,0 C 12,9 km/h (3 Bft) 100,00 %
07.08.2016 13:48 23,0 C 53 % 1026,5 hPa 0,0 l/m 5,2 km/h (1 Bft) NW 304 2 min 0,000 mm 6,4 UV-I 867 W/m 12,9 C 23,0 C 12,9 km/h (3 Bft) 100,00 %
07.08.2016 13:50 23,0 C 51 % 1026,5 hPa 0,0 l/m 6,5 km/h (2 Bft) W-NW 290 2 min 0,000 mm 6,4 UV-I 864 W/m 12,3 C 23,0 C 12,9 km/h (3 Bft) 100,00 %
07.08.2016 13:52 23,0 C 47 % 1026,5 hPa 0,0 l/m 5,3 km/h (1 Bft) W 259 2 min 0,000 mm 6,5 UV-I 874 W/m 11,1 C 23,0 C 9,7 km/h (2 Bft) 100,00 %
07.08.2016 13:54 22,9 C 47 % 1026,5 hPa 0,0 l/m 3,7 km/h (1 Bft) NW 306 2 min 0,000 mm 6,5 UV-I 874 W/m 11,0 C 22,9 C 8,0 km/h (2 Bft) 96,23 %
07.08.2016 13:56 22,9 C 50 % 1026,4 hPa 0,0 l/m 5,8 km/h (2 Bft) W-SW 241 2 min 0,000 mm 6,4 UV-I 878 W/m 11,9 C 22,9 C 12,9 km/h (3 Bft) 97,87 %
07.08.2016 13:58 23,1 C 52 % 1026,4 hPa 0,0 l/m 4,3 km/h (1 Bft) W-SW 239 2 min 0,000 mm 6,4 UV-I 886 W/m 12,7 C 23,1 C 8,0 km/h (2 Bft) 96,23 %
07.08.2016 14:00 23,3 C 54 % 1026,4 hPa 0,0 l/m 10,5 km/h (2 Bft) W-SW 258 2 min 0,559 mm 6,4 UV-I 894 W/m 13,5 C 22,2 C 14,5 km/h (3 Bft) 97,87 %
07.08.2016 14:02 23,4 C 52 % 1026,4 hPa 0,0 l/m 10,7 km/h (2 Bft) W 259 2 min 0,000 mm 5,2 UV-I 889 W/m 13,0 C 22,2 C 14,5 km/h (3 Bft) 97,56 %
07.08.2016 14:04 23,5 C 49 % 1026,4 hPa 0,0 l/m 9,9 km/h (2 Bft) W 279 2 min 0,000 mm 5,8 UV-I 889 W/m 12,2 C 22,5 C 17,7 km/h (3 Bft) 97,73 %
07.08.2016 14:06 23,6 C 51 % 1026,3 hPa 0,0 l/m 6,8 km/h (2 Bft) W-SW 254 2 min 0,000 mm 5,5 UV-I 895 W/m 12,9 C 23,5 C 12,9 km/h (3 Bft) 98,11 %
07.08.2016 14:08 23,4 C 48 % 1026,3 hPa 0,0 l/m 6,4 km/h (2 Bft) W-NW 302 2 min 0,000 mm 6,1 UV-I 899 W/m 11,8 C 23,4 C 12,9 km/h (3 Bft) 97,62 %
07.08.2016 14:10 23,3 C 50 % 1026,3 hPa 0,0 l/m 6,9 km/h (2 Bft) W-SW 238 2 min 0,000 mm 4,9 UV-I 906 W/m 12,3 C 23,1 C 14,5 km/h (3 Bft) 97,37 %
07.08.2016 14:12 23,1 C 48 % 1026,3 hPa 0,0 l/m 4,3 km/h (1 Bft) W-NW 295 2 min 0,000 mm 3,9 UV-I 691 W/m 11,5 C 23,1 C 9,7 km/h (2 Bft) 96,88 %
07.08.2016 14:14 22,8 C 50 % 1026,3 hPa 0,0 l/m 6,8 km/h (2 Bft) W 270 0 min 0,000 mm 3,7 UV-I 226 W/m 11,8 C 22,7 C 11,3 km/h (2 Bft) 97,44 %
07.08.2016 14:16 22,7 C 53 % 1026,3 hPa 0,0 l/m 7,1 km/h (2 Bft) W-NW 297 2 min 0,000 mm 5,5 UV-I 659 W/m 12,6 C 22,5 C 9,7 km/h (2 Bft) 95,74 %
07.08.2016 14:18 22,9 C 49 % 1026,3 hPa 0,0 l/m 9,3 km/h (2 Bft) W 264 2 min 0,000 mm 6,1 UV-I 964 W/m 11,6 C 22,0 C 14,5 km/h (3 Bft) 97,56 %
07.08.2016 14:20 23,1 C 49 % 1026,2 hPa 0,0 l/m 6,8 km/h (2 Bft) W 260 2 min 0,000 mm 6,1 UV-I 939 W/m 11,8 C 23,0 C 11,3 km/h (2 Bft) 97,56 %
07.08.2016 14:22 23,3 C 52 % 1026,2 hPa 0,0 l/m 3,4 km/h (1 Bft) S-SW 205 2 min 0,000 mm 6,0 UV-I 909 W/m 12,9 C 23,3 C 8,0 km/h (2 Bft) 96,23 %
07.08.2016 14:24 23,6 C 50 % 1026,2 hPa 0,0 l/m 8,9 km/h (2 Bft) SW 229 2 min 0,000 mm 5,9 UV-I 897 W/m 12,6 C 22,9 C 14,5 km/h (3 Bft) 98,21 %
07.08.2016 14:26 23,6 C 50 % 1026,2 hPa 0,0 l/m 10,0 km/h (2 Bft) SW 232 2 min 0,000 mm 5,8 UV-I 892 W/m 12,6 C 22,6 C 17,7 km/h (3 Bft) 97,87 %
07.08.2016 14:28 23,3 C 50 % 1026,2 hPa 0,0 l/m 9,5 km/h (2 Bft) W-SW 248 2 min 0,000 mm 3,6 UV-I 505 W/m 12,3 C 22,4 C 14,5 km/h (3 Bft) 100,00 %
07.08.2016 14:30 23,0 C 49 % 1026,2 hPa 0,0 l/m 11,6 km/h (2 Bft) W 259 0 min 0,000 mm 3,2 UV-I 168 W/m 11,7 C 21,6 C 19,3 km/h (3 Bft) 100,00 %
07.08.2016 14:32 22,7 C 51 % 1026,2 hPa 0,0 l/m 3,9 km/h (1 Bft) SW 232 0 min 0,000 mm 3,2 UV-I 152 W/m 12,0 C 22,7 C 8,0 km/h (2 Bft) 100,00 %
07.08.2016 14:34 22,4 C 53 % 1026,2 hPa 0,0 l/m 4,9 km/h (1 Bft) SW 232 0 min 0,000 mm 3,4 UV-I 158 W/m 12,3 C 22,4 C 9,7 km/h (2 Bft) 95,45 %
07.08.2016 14:36 22,3 C 56 % 1026,1 hPa 0,0 l/m 1,2 km/h (1 Bft) W-SW 243 0 min 0,000 mm 4,9 UV-I 365 W/m 13,1 C 22,3 C 1,6 km/h (1 Bft) 100,00 %
07.08.2016 14:38 22,6 C 52 % 1026,2 hPa 0,0 l/m 8,5 km/h (2 Bft) W-SW 244 2 min 0,000 mm 4,6 UV-I 787 W/m 12,2 C 21,9 C 16,1 km/h (3 Bft) 98,21 %
07.08.2016 14:40 22,7 C 51 % 1026,2 hPa 0,0 l/m 13,1 km/h (3 Bft) W 275 2 min 0,000 mm 4,9 UV-I 791 W/m 12,0 C 20,9 C 19,3 km/h (3 Bft) 100,00 %
07.08.2016 14:42 22,8 C 52 % 1026,2 hPa 0,0 l/m 5,4 km/h (1 Bft) W-NW 301 2 min 0,000 mm 5,5 UV-I 843 W/m 12,4 C 22,8 C 12,9 km/h (3 Bft) 100,00 %
07.08.2016 14:44 23,1 C 49 % 1026,2 hPa 0,0 l/m 3,9 km/h (1 Bft) NW 319 2 min 0,000 mm 5,4 UV-I 835 W/m 11,8 C 23,1 C 6,4 km/h (2 Bft) 100,00 %
07.08.2016 14:46 23,1 C 48 % 1026,2 hPa 0,0 l/m 4,4 km/h (1 Bft) W 271 2 min 0,000 mm 5,5 UV-I 822 W/m 11,5 C 23,1 C 11,3 km/h (2 Bft) 100,00 %
07.08.2016 14:48 23,1 C 52 % 1026,1 hPa 0,0 l/m 5,3 km/h (1 Bft) W-NW 295 2 min 0,000 mm 5,6 UV-I 830 W/m 12,7 C 23,1 C 9,7 km/h (2 Bft) 98,18 %
07.08.2016 14:50 23,3 C 53 % 1026,1 hPa 0,0 l/m 1,9 km/h (1 Bft) W-NW 292 2 min 0,000 mm 5,5 UV-I 821 W/m 13,2 C 23,3 C 4,8 km/h (1 Bft) 97,62 %
07.08.2016 14:52 23,4 C 46 % 1026,1 hPa 0,0 l/m 8,8 km/h (2 Bft) W-SW 247 2 min 0,000 mm 5,4 UV-I 810 W/m 11,1 C 22,7 C 16,1 km/h (3 Bft) 100,00 %
07.08.2016 14:54 23,6 C 48 % 1026,1 hPa 0,0 l/m 6,4 km/h (2 Bft) W 278 2 min 0,000 mm 5,4 UV-I 806 W/m 11,9 C 23,6 C 12,9 km/h (3 Bft) 100,00 %
07.08.2016 14:56 23,6 C 42 % 1026,1 hPa 0,0 l/m 9,2 km/h (2 Bft) W-SW 250 2 min 0,000 mm 5,3 UV-I 803 W/m 9,9 C 22,8 C 16,1 km/h (3 Bft) 100,00 %
07.08.2016 14:58 23,5 C 47 % 1026,1 hPa 0,0 l/m 6,0 km/h (2 Bft) NW 325 2 min 0,000 mm 4,9 UV-I 798 W/m 11,5 C 23,5 C 11,3 km/h (2 Bft) 100,00 %
07.08.2016 15:00 23,6 C 45 % 1026,0 hPa 0,0 l/m 4,5 km/h (1 Bft) W-SW 248 2 min 0,482 mm 5,2 UV-I 794 W/m 11,0 C 23,6 C 11,3 km/h (2 Bft) 100,00 %
07.08.2016 15:02 23,6 C 46 % 1026,0 hPa 0,0 l/m 5,5 km/h (1 Bft) W 276 2 min 0,000 mm 5,2 UV-I 804 W/m 11,3 C 23,6 C 11,3 km/h (2 Bft) 100,00 %
07.08.2016 15:04 23,6 C 48 % 1025,9 hPa 0,0 l/m 3,2 km/h (1 Bft) SW 218 2 min 0,000 mm 4,9 UV-I 812 W/m 11,9 C 23,6 C 9,7 km/h (2 Bft) 100,00 %
07.08.2016 15:06 23,6 C 49 % 1025,9 hPa 0,0 l/m 7,0 km/h (2 Bft) W-SW 257 2 min 0,000 mm 4,8 UV-I 816 W/m 12,2 C 23,4 C 11,3 km/h (2 Bft) 100,00 %
07.08.2016 15:08 23,7 C 49 % 1026,0 hPa 0,0 l/m 11,3 km/h (2 Bft) W-SW 244 2 min 0,000 mm 5,1 UV-I 809 W/m 12,3 C 22,4 C 17,7 km/h (3 Bft) 100,00 %
07.08.2016 15:10 23,7 C 50 % 1025,9 hPa 0,0 l/m 9,4 km/h (2 Bft) SW 232 2 min 0,000 mm 4,6 UV-I 797 W/m 12,6 C 22,9 C 16,1 km/h (3 Bft) 98,00 %
07.08.2016 15:12 23,7 C 47 % 1025,9 hPa 0,0 l/m 7,8 km/h (2 Bft) W-NW 284 2 min 0,000 mm 4,9 UV-I 787 W/m 11,7 C 23,3 C 19,3 km/h (3 Bft) 100,00 %
07.08.2016 15:14 23,8 C 51 % 1025,9 hPa 0,0 l/m 4,4 km/h (1 Bft) S 183 2 min 0,000 mm 4,9 UV-I 777 W/m 13,0 C 23,8 C 11,3 km/h (2 Bft) 100,00 %
07.08.2016 15:16 23,7 C 46 % 1025,8 hPa 0,0 l/m 3,6 km/h (1 Bft) NW 315 2 min 0,000 mm 4,7 UV-I 758 W/m 11,4 C 23,7 C 6,4 km/h (2 Bft) 100,00 %
07.08.2016 15:18 23,7 C 49 % 1025,9 hPa 0,0 l/m 4,1 km/h (1 Bft) W-SW 258 2 min 0,000 mm 4,8 UV-I 757 W/m 12,3 C 23,7 C 9,7 km/h (2 Bft) 98,21 %
07.08.2016 15:20 23,7 C 45 % 1025,8 hPa 0,0 l/m 3,2 km/h (1 Bft) W-SW 252 2 min 0,000 mm 4,8 UV-I 766 W/m 11,1 C 23,7 C 6,4 km/h (2 Bft) 100,00 %
07.08.2016 15:22 23,8 C 47 % 1025,7 hPa 0,0 l/m 7,6 km/h (2 Bft) W-SW 254 2 min 0,000 mm 4,8 UV-I 771 W/m 11,8 C 23,5 C 14,5 km/h (3 Bft) 100,00 %
07.08.2016 15:24 23,9 C 47 % 1025,7 hPa 0,0 l/m 10,7 km/h (2 Bft) W-SW 247 2 min 0,000 mm 4,6 UV-I 783 W/m 11,9 C 22,8 C 17,7 km/h (3 Bft) 98,00 %
07.08.2016 15:26 24,0 C 46 % 1025,7 hPa 0,0 l/m 11,3 km/h (2 Bft) W-SW 257 2 min 0,000 mm 3,5 UV-I 785 W/m 11,7 C 22,8 C 17,7 km/h (3 Bft) 100,00 %
07.08.2016 15:28 23,8 C 47 % 1025,7 hPa 0,0 l/m 10,3 km/h (2 Bft) SW 232 2 min 0,000 mm 3,3 UV-I 542 W/m 11,8 C 22,8 C 17,7 km/h (3 Bft) 100,00 %
07.08.2016 15:30 23,4 C 46 % 1025,7 hPa 0,0 l/m 10,9 km/h (2 Bft) W-SW 240 0 min 0,000 mm 2,7 UV-I 109 W/m 11,1 C 22,2 C 14,5 km/h (3 Bft) 97,87 %
07.08.2016 15:32 23,0 C 47 % 1025,7 hPa 0,0 l/m 5,4 km/h (1 Bft) W 274 0 min 0,000 mm 2,7 UV-I 99 W/m 11,1 C 23,0 C 8,0 km/h (2 Bft) 100,00 %
07.08.2016 15:34 22,9 C 50 % 1025,6 hPa 0,0 l/m 6,1 km/h (2 Bft) NW 316 0 min 0,000 mm 4,0 UV-I 319 W/m 11,9 C 22,9 C 11,3 km/h (2 Bft) 100,00 %
07.08.2016 15:36 23,3 C 54 % 1025,7 hPa 0,0 l/m 5,4 km/h (1 Bft) W-SW 244 2 min 0,000 mm 4,3 UV-I 729 W/m 13,5 C 23,3 C 14,5 km/h (3 Bft) 100,00 %
07.08.2016 15:38 23,6 C 49 % 1025,7 hPa 0,0 l/m 8,2 km/h (2 Bft) W-SW 246 2 min 0,000 mm 4,2 UV-I 709 W/m 12,2 C 23,1 C 16,1 km/h (3 Bft) 100,00 %
07.08.2016 15:40 23,6 C 46 % 1025,7 hPa 0,0 l/m 10,2 km/h (2 Bft) W-NW 296 2 min 0,000 mm 4,2 UV-I 709 W/m 11,3 C 22,6 C 14,5 km/h (3 Bft) 97,87 %
07.08.2016 15:42 23,6 C 45 % 1025,7 hPa 0,0 l/m 4,9 km/h (1 Bft) W-SW 238 2 min 0,000 mm 4,2 UV-I 703 W/m 11,0 C 23,6 C 12,9 km/h (3 Bft) 100,00 %
07.08.2016 15:44 23,7 C 48 % 1025,6 hPa 0,0 l/m 4,3 km/h (1 Bft) S-SW 204 2 min 0,000 mm 4,1 UV-I 700 W/m 12,0 C 23,7 C 9,7 km/h (2 Bft) 100,00 %
07.08.2016 15:46 23,8 C 49 % 1025,6 hPa 0,0 l/m 4,6 km/h (1 Bft) S-SO 165 2 min 0,000 mm 4,1 UV-I 699 W/m 12,4 C 23,8 C 9,7 km/h (2 Bft) 100,00 %
07.08.2016 15:48 23,8 C 45 % 1025,6 hPa 0,0 l/m 6,1 km/h (2 Bft) SW 232 2 min 0,000 mm 4,0 UV-I 693 W/m 11,1 C 23,8 C 11,3 km/h (2 Bft) 100,00 %
07.08.2016 15:50 23,9 C 47 % 1025,6 hPa 0,0 l/m 4,7 km/h (1 Bft) S-SW 205 2 min 0,000 mm 4,0 UV-I 687 W/m 11,9 C 23,9 C 12,9 km/h (3 Bft) 100,00 %
07.08.2016 15:52 24,0 C 45 % 1025,5 hPa 0,0 l/m 13,4 km/h (3 Bft) SW 227 2 min 0,000 mm 3,9 UV-I 685 W/m 11,3 C 22,4 C 22,5 km/h (4 Bft) 98,11 %
07.08.2016 15:54 24,0 C 48 % 1025,5 hPa 0,0 l/m 10,6 km/h (2 Bft) W-SW 243 2 min 0,000 mm 3,9 UV-I 678 W/m 12,3 C 22,9 C 17,7 km/h (3 Bft) 97,37 %
07.08.2016 15:56 24,1 C 44 % 1025,5 hPa 0,0 l/m 12,6 km/h (3 Bft) SW 230 2 min 0,000 mm 3,9 UV-I 674 W/m 11,1 C 22,6 C 17,7 km/h (3 Bft) 98,11 %
07.08.2016 15:58 24,1 C 44 % 1025,6 hPa 0,0 l/m 10,7 km/h (2 Bft) SW 229 2 min 0,000 mm 3,8 UV-I 669 W/m 11,1 C 23,0 C 19,3 km/h (3 Bft) 96,00 %
07.08.2016 16:00 24,0 C 47 % 1025,5 hPa 0,0 l/m 9,5 km/h (2 Bft) W 266 2 min 0,000 mm 3,7 UV-I 664 W/m 12,0 C 23,2 C 19,3 km/h (3 Bft) 97,37 %
07.08.2016 16:02 23,9 C 42 % 1025,5 hPa 0,0 l/m 7,7 km/h (2 Bft) W-NW 296 2 min 0,483 mm 3,7 UV-I 661 W/m 10,2 C 23,5 C 14,5 km/h (3 Bft) 98,21 %
07.08.2016 16:04 23,9 C 43 % 1025,4 hPa 0,0 l/m 4,5 km/h (1 Bft) W-SW 238 2 min 0,000 mm 3,6 UV-I 657 W/m 10,5 C 23,9 C 9,7 km/h (2 Bft) 92,68 %
07.08.2016 16:06 23,9 C 45 % 1025,4 hPa 0,0 l/m 7,3 km/h (2 Bft) SW 233 2 min 0,000 mm 3,6 UV-I 651 W/m 11,2 C 23,6 C 14,5 km/h (3 Bft) 97,78 %
07.08.2016 16:08 23,8 C 45 % 1025,3 hPa 0,0 l/m 8,2 km/h (2 Bft) W-SW 251 2 min 0,000 mm 3,5 UV-I 647 W/m 11,1 C 23,3 C 16,1 km/h (3 Bft) 97,87 %
07.08.2016 16:10 23,8 C 43 % 1025,4 hPa 0,0 l/m 9,1 km/h (2 Bft) W 263 2 min 0,000 mm 3,4 UV-I 643 W/m 10,5 C 23,1 C 14,5 km/h (3 Bft) 97,87 %
07.08.2016 16:12 23,8 C 45 % 1025,3 hPa 0,0 l/m 5,1 km/h (1 Bft) SW 228 2 min 0,000 mm 3,4 UV-I 635 W/m 11,1 C 23,8 C 9,7 km/h (2 Bft) 96,00 %
07.08.2016 16:14 23,8 C 49 % 1025,3 hPa 0,0 l/m 8,0 km/h (2 Bft) SW 234 2 min 0,000 mm 3,4 UV-I 631 W/m 12,4 C 23,3 C 12,9 km/h (3 Bft) 94,00 %
07.08.2016 16:16 23,9 C 42 % 1025,3 hPa 0,0 l/m 6,5 km/h (2 Bft) NW 305 2 min 0,000 mm 3,3 UV-I 627 W/m 10,2 C 23,9 C 14,5 km/h (3 Bft) 97,56 %
07.08.2016 16:18 23,8 C 45 % 1025,3 hPa 0,0 l/m 2,9 km/h (1 Bft) W-SW 256 2 min 0,000 mm 3,2 UV-I 623 W/m 11,1 C 23,8 C 6,4 km/h (2 Bft) 98,00 %
07.08.2016 16:20 23,9 C 47 % 1025,3 hPa 0,0 l/m 6,8 km/h (2 Bft) W-SW 252 2 min 0,000 mm 3,2 UV-I 618 W/m 11,9 C 23,8 C 12,9 km/h (3 Bft) 97,73 %
07.08.2016 16:22 24,1 C 42 % 1025,2 hPa 0,0 l/m 11,3 km/h (2 Bft) W-SW 246 2 min 0,000 mm 3,1 UV-I 610 W/m 10,4 C 22,9 C 16,1 km/h (3 Bft) 97,73 %
07.08.2016 16:24 23,9 C 44 % 1025,2 hPa 0,0 l/m 6,4 km/h (2 Bft) W 280 2 min 0,000 mm 3,1 UV-I 604 W/m 10,9 C 23,9 C 14,5 km/h (3 Bft) 100,00 %
07.08.2016 16:26 24,0 C 43 % 1025,2 hPa 0,0 l/m 1,8 km/h (1 Bft) W-NW 287 2 min 0,000 mm 3,0 UV-I 600 W/m 10,6 C 24,0 C 4,8 km/h (1 Bft) 100,00 %
07.08.2016 16:28 24,0 C 42 % 1025,2 hPa 0,0 l/m 6,5 km/h (2 Bft) W 277 2 min 0,000 mm 3,0 UV-I 597 W/m 10,3 C 24,0 C 9,7 km/h (2 Bft) 100,00 %
07.08.2016 16:30 23,9 C 45 % 1025,2 hPa 0,0 l/m 5,7 km/h (1 Bft) W 262 2 min 0,000 mm 3,0 UV-I 592 W/m 11,2 C 23,9 C 11,3 km/h (2 Bft) 98,00 %
07.08.2016 16:32 24,1 C 44 % 1025,1 hPa 0,0 l/m 9,4 km/h (2 Bft) W-SW 237 2 min 0,000 mm 2,9 UV-I 588 W/m 11,1 C 23,3 C 14,5 km/h (3 Bft) 97,56 %
07.08.2016 16:34 24,0 C 43 % 1025,1 hPa 0,0 l/m 10,3 km/h (2 Bft) S-SW 211 2 min 0,000 mm 2,8 UV-I 585 W/m 10,6 C 23,0 C 16,1 km/h (3 Bft) 100,00 %
07.08.2016 16:36 23,8 C 43 % 1025,1 hPa 0,0 l/m 6,1 km/h (2 Bft) SW 225 2 min 0,000 mm 2,8 UV-I 578 W/m 10,5 C 23,8 C 12,9 km/h (3 Bft) 100,00 %
07.08.2016 16:38 23,8 C 44 % 1025,1 hPa 0,0 l/m 8,3 km/h (2 Bft) SW 224 2 min 0,000 mm 2,7 UV-I 571 W/m 10,8 C 23,3 C 14,5 km/h (3 Bft) 100,00 %
07.08.2016 16:40 24,0 C 45 % 1025,1 hPa 0,0 l/m 12,8 km/h (3 Bft) W-SW 253 2 min 0,000 mm 2,7 UV-I 567 W/m 11,3 C 22,5 C 20,9 km/h (4 Bft) 100,00 %
07.08.2016 16:42 24,0 C 45 % 1025,0 hPa 0,0 l/m 11,1 km/h (2 Bft) W-SW 239 2 min 0,000 mm 2,6 UV-I 557 W/m 11,3 C 22,8 C 17,7 km/h (3 Bft) 100,00 %
07.08.2016 16:44 23,9 C 43 % 1025,1 hPa 0,0 l/m 11,1 km/h (2 Bft) S-SW 200 2 min 0,000 mm 2,6 UV-I 555 W/m 10,5 C 22,7 C 14,5 km/h (3 Bft) 95,74 %
07.08.2016 16:46 23,9 C 43 % 1025,1 hPa 0,0 l/m 7,8 km/h (2 Bft) SW 235 2 min 0,000 mm 2,5 UV-I 553 W/m 10,5 C 23,5 C 11,3 km/h (2 Bft) 100,00 %
07.08.2016 16:48 23,9 C 47 % 1025,0 hPa 0,0 l/m 7,5 km/h (2 Bft) W-SW 244 2 min 0,000 mm 2,5 UV-I 549 W/m 11,9 C 23,6 C 11,3 km/h (2 Bft) 100,00 %
07.08.2016 16:50 24,1 C 46 % 1025,0 hPa 0,0 l/m 9,7 km/h (2 Bft) W 262 2 min 0,000 mm 2,4 UV-I 545 W/m 11,7 C 23,2 C 16,1 km/h (3 Bft) 100,00 %
07.08.2016 16:52 24,1 C 44 % 1025,0 hPa 0,0 l/m 13,0 km/h (3 Bft) W-SW 244 2 min 0,000 mm 2,4 UV-I 539 W/m 11,1 C 22,6 C 17,7 km/h (3 Bft) 100,00 %
07.08.2016 16:54 24,1 C 47 % 1025,0 hPa 0,0 l/m 6,9 km/h (2 Bft) S 185 2 min 0,000 mm 2,4 UV-I 533 W/m 12,1 C 24,0 C 14,5 km/h (3 Bft) 97,87 %
07.08.2016 16:56 24,0 C 44 % 1025,0 hPa 0,0 l/m 8,8 km/h (2 Bft) S 188 2 min 0,000 mm 2,3 UV-I 529 W/m 11,0 C 23,3 C 16,1 km/h (3 Bft) 100,00 %
07.08.2016 16:58 23,9 C 45 % 1025,0 hPa 0,0 l/m 9,6 km/h (2 Bft) SW 217 2 min 0,000 mm 2,3 UV-I 524 W/m 11,2 C 23,0 C 16,1 km/h (3 Bft) 100,00 %
07.08.2016 17:00 23,9 C 44 % 1025,0 hPa 0,0 l/m 6,1 km/h (2 Bft) SW 224 2 min 0,432 mm 2,2 UV-I 516 W/m 10,9 C 23,9 C 11,3 km/h (2 Bft) 100,00 %
07.08.2016 17:02 23,9 C 44 % 1025,0 hPa 0,0 l/m 10,2 km/h (2 Bft) SO 140 2 min 0,000 mm 2,2 UV-I 509 W/m 10,9 C 22,9 C 16,1 km/h (3 Bft) 100,00 %
07.08.2016 17:04 23,8 C 44 % 1024,9 hPa 0,0 l/m 12,6 km/h (3 Bft) S 169 2 min 0,000 mm 2,1 UV-I 504 W/m 10,8 C 22,3 C 19,3 km/h (3 Bft) 100,00 %
07.08.2016 17:06 23,7 C 45 % 1024,9 hPa 0,0 l/m 8,7 km/h (2 Bft) W-SW 244 2 min 0,000 mm 2,1 UV-I 499 W/m 11,1 C 23,0 C 17,7 km/h (3 Bft) 97,87 %
07.08.2016 17:08 23,7 C 43 % 1024,9 hPa 0,0 l/m 8,2 km/h (2 Bft) W-SW 255 2 min 0,000 mm 2,0 UV-I 494 W/m 10,4 C 23,2 C 14,5 km/h (3 Bft) 100,00 %
07.08.2016 17:10 23,8 C 45 % 1024,9 hPa 0,0 l/m 8,6 km/h (2 Bft) W-SW 255 2 min 0,000 mm 2,0 UV-I 488 W/m 11,1 C 23,2 C 14,5 km/h (3 Bft) 100,00 %
07.08.2016 17:12 23,9 C 45 % 1024,9 hPa 0,0 l/m 10,3 km/h (2 Bft) SW 219 2 min 0,000 mm 1,9 UV-I 481 W/m 11,2 C 22,9 C 14,5 km/h (3 Bft) 100,00 %
07.08.2016 17:14 23,9 C 43 % 1024,9 hPa 0,0 l/m 8,0 km/h (2 Bft) W-SW 241 2 min 0,000 mm 1,9 UV-I 476 W/m 10,5 C 23,4 C 14,5 km/h (3 Bft) 100,00 %
07.08.2016 17:16 23,9 C 44 % 1024,8 hPa 0,0 l/m 6,5 km/h (2 Bft) W-NW 282 2 min 0,000 mm 1,8 UV-I 471 W/m 10,9 C 23,9 C 11,3 km/h (2 Bft) 100,00 %
07.08.2016 17:18 23,9 C 43 % 1024,8 hPa 0,0 l/m 6,6 km/h (2 Bft) W-SW 255 2 min 0,000 mm 1,8 UV-I 467 W/m 10,5 C 23,9 C 12,9 km/h (3 Bft) 100,00 %
07.08.2016 17:20 23,9 C 45 % 1024,8 hPa 0,0 l/m 5,7 km/h (1 Bft) W-SW 252 2 min 0,000 mm 1,8 UV-I 459 W/m 11,2 C 23,9 C 9,7 km/h (2 Bft) 100,00 %
07.08.2016 17:22 23,9 C 44 % 1024,8 hPa 0,0 l/m 2,9 km/h (1 Bft) NW 305 2 min 0,000 mm 1,7 UV-I 455 W/m 10,9 C 23,9 C 8,0 km/h (2 Bft) 100,00 %
07.08.2016 17:24 24,0 C 43 % 1024,7 hPa 0,0 l/m 3,4 km/h (1 Bft) W-NW 290 2 min 0,000 mm 1,7 UV-I 448 W/m 10,6 C 24,0 C 4,8 km/h (1 Bft) 97,87 %
07.08.2016 17:26 24,1 C 41 % 1024,8 hPa 0,0 l/m 3,5 km/h (1 Bft) W-NW 290 2 min 0,000 mm 1,6 UV-I 443 W/m 10,0 C 24,1 C 6,4 km/h (2 Bft) 100,00 %
07.08.2016 17:28 24,1 C 45 % 1024,8 hPa 0,0 l/m 1,6 km/h (1 Bft) NW 323 2 min 0,000 mm 1,6 UV-I 437 W/m 11,4 C 24,1 C 3,2 km/h (1 Bft) 100,00 %
07.08.2016 17:30 24,2 C 45 % 1024,8 hPa 0,0 l/m 2,4 km/h (1 Bft) W 260 2 min 0,000 mm 1,5 UV-I 430 W/m 11,5 C 24,2 C 4,8 km/h (1 Bft) 97,06 %
07.08.2016 17:32 24,2 C 46 % 1024,8 hPa 0,0 l/m 4,7 km/h (1 Bft) W 273 2 min 0,000 mm 1,5 UV-I 424 W/m 11,8 C 24,2 C 6,4 km/h (2 Bft) 100,00 %
07.08.2016 17:34 24,1 C 43 % 1024,7 hPa 0,0 l/m 4,9 km/h (1 Bft) S 172 2 min 0,000 mm 1,5 UV-I 419 W/m 10,7 C 24,1 C 9,7 km/h (2 Bft) 100,00 %
07.08.2016 17:36 24,0 C 44 % 1024,7 hPa 0,0 l/m 5,9 km/h (2 Bft) W 264 2 min 0,000 mm 1,4 UV-I 413 W/m 11,0 C 24,0 C 9,7 km/h (2 Bft) 100,00 %
07.08.2016 17:38 24,0 C 42 % 1024,7 hPa 0,0 l/m 2,0 km/h (1 Bft) W 264 2 min 0,000 mm 1,4 UV-I 409 W/m 10,3 C 24,0 C 3,2 km/h (1 Bft) 100,00 %
07.08.2016 17:40 24,0 C 45 % 1024,7 hPa 0,0 l/m 1,9 km/h (1 Bft) W 269 2 min 0,000 mm 1,4 UV-I 401 W/m 11,3 C 24,0 C 3,2 km/h (1 Bft) 100,00 %
07.08.2016 17:42 24,1 C 43 % 1024,6 hPa 0,0 l/m 2,4 km/h (1 Bft) N-NW 346 2 min 0,000 mm 1,3 UV-I 396 W/m 10,7 C 24,1 C 3,2 km/h (1 Bft) 98,00 %
07.08.2016 17:44 24,1 C 43 % 1024,6 hPa 0,0 l/m 4,0 km/h (1 Bft) W-NW 290 2 min 0,000 mm 1,3 UV-I 392 W/m 10,7 C 24,1 C 9,7 km/h (2 Bft) 98,00 %
07.08.2016 17:46 24,1 C 44 % 1024,6 hPa 0,0 l/m 3,3 km/h (1 Bft) W 269 2 min 0,000 mm 1,3 UV-I 387 W/m 11,1 C 24,1 C 4,8 km/h (1 Bft) 98,00 %
07.08.2016 17:48 24,1 C 42 % 1024,6 hPa 0,0 l/m 8,9 km/h (2 Bft) W 261 2 min 0,000 mm 1,2 UV-I 381 W/m 10,4 C 23,4 C 16,1 km/h (3 Bft) 94,74 %
07.08.2016 17:50 24,0 C 44 % 1024,6 hPa 0,0 l/m 8,0 km/h (2 Bft) W-NW 288 2 min 0,000 mm 1,2 UV-I 375 W/m 11,0 C 23,6 C 14,5 km/h (3 Bft) 98,00 %
07.08.2016 17:52 24,1 C 45 % 1024,6 hPa 0,0 l/m 4,5 km/h (1 Bft) W 281 2 min 0,000 mm 1,2 UV-I 368 W/m 11,4 C 24,1 C 9,7 km/h (2 Bft) 98,00 %
07.08.2016 17:54 23,9 C 43 % 1024,5 hPa 0,0 l/m 2,7 km/h (1 Bft) W-SW 243 2 min 0,000 mm 1,1 UV-I 362 W/m 10,5 C 23,9 C 4,8 km/h (1 Bft) 95,74 %
07.08.2016 17:56 23,9 C 43 % 1024,5 hPa 0,0 l/m 5,9 km/h (2 Bft) W 259 2 min 0,000 mm 1,1 UV-I 357 W/m 10,5 C 23,9 C 11,3 km/h (2 Bft) 97,87 %
07.08.2016 17:58 23,8 C 44 % 1024,5 hPa 0,0 l/m 3,9 km/h (1 Bft) W-SW 247 2 min 0,000 mm 1,1 UV-I 352 W/m 10,8 C 23,8 C 6,4 km/h (2 Bft) 97,56 %
07.08.2016 18:00 23,8 C 44 % 1024,5 hPa 0,0 l/m 6,1 km/h (2 Bft) S-SW 208 2 min 0,304 mm 1,0 UV-I 346 W/m 10,8 C 23,8 C 11,3 km/h (2 Bft) 97,62 %
07.08.2016 18:02 23,8 C 45 % 1024,4 hPa 0,0 l/m 9,7 km/h (2 Bft) W-SW 238 2 min 0,000 mm 1,0 UV-I 341 W/m 11,1 C 22,9 C 14,5 km/h (3 Bft) 96,36 %
07.08.2016 18:04 23,9 C 44 % 1024,4 hPa 0,0 l/m 6,9 km/h (2 Bft) S-SW 212 2 min 0,000 mm 1,0 UV-I 335 W/m 10,9 C 23,8 C 9,7 km/h (2 Bft) 94,87 %
07.08.2016 18:06 23,8 C 44 % 1024,4 hPa 0,0 l/m 6,9 km/h (2 Bft) W-SW 242 2 min 0,000 mm 0,9 UV-I 329 W/m 10,8 C 23,7 C 11,3 km/h (2 Bft) 98,00 %
07.08.2016 18:08 23,7 C 42 % 1024,4 hPa 0,0 l/m 8,2 km/h (2 Bft) SW 226 2 min 0,000 mm 0,9 UV-I 323 W/m 10,0 C 23,2 C 12,9 km/h (3 Bft) 98,11 %
07.08.2016 18:10 23,7 C 45 % 1024,4 hPa 0,0 l/m 5,4 km/h (1 Bft) SW 217 2 min 0,000 mm 0,9 UV-I 317 W/m 11,1 C 23,7 C 9,7 km/h (2 Bft) 98,00 %
07.08.2016 18:12 23,7 C 43 % 1024,4 hPa 0,0 l/m 5,1 km/h (1 Bft) W 266 2 min 0,000 mm 0,8 UV-I 310 W/m 10,4 C 23,7 C 9,7 km/h (2 Bft) 95,12 %
07.08.2016 18:14 23,8 C 44 % 1024,3 hPa 0,0 l/m 7,2 km/h (2 Bft) W-SW 250 2 min 0,000 mm 0,8 UV-I 305 W/m 10,8 C 23,6 C 11,3 km/h (2 Bft) 96,00 %
07.08.2016 18:16 23,8 C 42 % 1024,3 hPa 0,0 l/m 7,4 km/h (2 Bft) W-SW 250 2 min 0,000 mm 0,8 UV-I 300 W/m 10,1 C 23,5 C 11,3 km/h (2 Bft) 97,73 %
07.08.2016 18:18 23,8 C 43 % 1024,3 hPa 0,0 l/m 2,6 km/h (1 Bft) SW 214 2 min 0,000 mm 0,8 UV-I 294 W/m 10,5 C 23,8 C 4,8 km/h (1 Bft) 92,00 %
07.08.2016 18:20 23,7 C 43 % 1024,2 hPa 0,0 l/m 3,7 km/h (1 Bft) W-SW 248 2 min 0,000 mm 0,7 UV-I 289 W/m 10,4 C 23,7 C 8,0 km/h (2 Bft) 100,00 %
07.08.2016 18:22 23,7 C 44 % 1024,3 hPa 0,0 l/m 4,7 km/h (1 Bft) W-SW 252 2 min 0,000 mm 0,7 UV-I 281 W/m 10,7 C 23,7 C 8,0 km/h (2 Bft) 97,14 %
07.08.2016 18:24 23,8 C 45 % 1024,2 hPa 0,0 l/m 8,0 km/h (2 Bft) W-SW 257 2 min 0,000 mm 0,7 UV-I 275 W/m 11,1 C 23,3 C 12,9 km/h (3 Bft) 100,00 %
07.08.2016 18:26 23,8 C 44 % 1024,2 hPa 0,0 l/m 7,1 km/h (2 Bft) W-SW 248 2 min 0,000 mm 0,6 UV-I 269 W/m 10,8 C 23,6 C 11,3 km/h (2 Bft) 100,00 %
07.08.2016 18:28 23,8 C 44 % 1024,2 hPa 0,0 l/m 8,1 km/h (2 Bft) SW 227 2 min 0,000 mm 0,6 UV-I 264 W/m 10,8 C 23,3 C 12,9 km/h (3 Bft) 98,11 %
07.08.2016 18:30 23,8 C 45 % 1024,2 hPa 0,0 l/m 4,6 km/h (1 Bft) W-SW 257 2 min 0,000 mm 0,6 UV-I 259 W/m 11,1 C 23,8 C 8,0 km/h (2 Bft) 100,00 %
07.08.2016 18:32 23,8 C 44 % 1024,2 hPa 0,0 l/m 4,8 km/h (1 Bft) SW 233 2 min 0,000 mm 0,6 UV-I 254 W/m 10,8 C 23,8 C 6,4 km/h (2 Bft) 100,00 %
07.08.2016 18:34 23,7 C 43 % 1024,1 hPa 0,0 l/m 4,0 km/h (1 Bft) SW 221 2 min 0,000 mm 0,5 UV-I 248 W/m 10,4 C 23,7 C 6,4 km/h (2 Bft) 97,87 %
07.08.2016 18:36 23,6 C 45 % 1024,1 hPa 0,0 l/m 4,3 km/h (1 Bft) SW 231 2 min 0,000 mm 0,5 UV-I 241 W/m 11,0 C 23,6 C 6,4 km/h (2 Bft) 100,00 %
07.08.2016 18:38 23,7 C 45 % 1024,1 hPa 0,0 l/m 5,5 km/h (1 Bft) W 263 2 min 0,000 mm 0,5 UV-I 235 W/m 11,1 C 23,7 C 9,7 km/h (2 Bft) 100,00 %
07.08.2016 18:40 23,7 C 44 % 1024,1 hPa 0,0 l/m 3,5 km/h (1 Bft) W 274 2 min 0,000 mm 0,5 UV-I 229 W/m 10,7 C 23,7 C 6,4 km/h (2 Bft) 100,00 %
07.08.2016 18:42 23,7 C 44 % 1024,1 hPa 0,0 l/m 4,2 km/h (1 Bft) W 271 2 min 0,000 mm 0,5 UV-I 222 W/m 10,7 C 23,7 C 6,4 km/h (2 Bft) 100,00 %
07.08.2016 18:44 23,7 C 46 % 1024,1 hPa 0,0 l/m 2,6 km/h (1 Bft) W 268 2 min 0,000 mm 0,1 UV-I 216 W/m 11,4 C 23,7 C 4,8 km/h (1 Bft) 100,00 %
07.08.2016 18:46 23,6 C 47 % 1024,1 hPa 0,0 l/m 1,2 km/h (1 Bft) W 272 2 min 0,000 mm 0,0 UV-I 208 W/m 11,6 C 23,6 C 3,2 km/h (1 Bft) 100,00 %
07.08.2016 18:48 23,6 C 45 % 1024,1 hPa 0,0 l/m 3,9 km/h (1 Bft) W-SW 252 2 min 0,000 mm 0,0 UV-I 202 W/m 11,0 C 23,6 C 6,4 km/h (2 Bft) 100,00 %
07.08.2016 18:50 23,6 C 46 % 1024,1 hPa 0,0 l/m 4,3 km/h (1 Bft) W-SW 245 2 min 0,000 mm 0,0 UV-I 196 W/m 11,3 C 23,6 C 8,0 km/h (2 Bft) 100,00 %
07.08.2016 18:52 23,7 C 48 % 1024,1 hPa 0,0 l/m 4,6 km/h (1 Bft) W-SW 248 2 min 0,000 mm 0,0 UV-I 189 W/m 12,0 C 23,7 C 6,4 km/h (2 Bft) 100,00 %
07.08.2016 18:54 23,6 C 46 % 1024,1 hPa 0,0 l/m 4,4 km/h (1 Bft) W-SW 246 2 min 0,000 mm 0,0 UV-I 182 W/m 11,3 C 23,6 C 6,4 km/h (2 Bft) 100,00 %
07.08.2016 18:56 23,6 C 44 % 1024,0 hPa 0,0 l/m 3,2 km/h (1 Bft) W-SW 246 2 min 0,000 mm 0,0 UV-I 175 W/m 10,6 C 23,6 C 6,4 km/h (2 Bft) 100,00 %
07.08.2016 18:58 23,6 C 45 % 1024,0 hPa 0,0 l/m 6,0 km/h (2 Bft) W 265 2 min 0,000 mm 0,0 UV-I 169 W/m 11,0 C 23,6 C 11,3 km/h (2 Bft) 100,00 %
07.08.2016 19:00 23,6 C 47 % 1024,0 hPa 0,0 l/m 4,0 km/h (1 Bft) W 278 2 min 0,000 mm 0,0 UV-I 162 W/m 11,6 C 23,6 C 6,4 km/h (2 Bft) 100,00 %
07.08.2016 19:02 23,6 C 47 % 1024,0 hPa 0,0 l/m 3,2 km/h (1 Bft) W 276 2 min 0,204 mm 0,0 UV-I 154 W/m 11,6 C 23,6 C 6,4 km/h (2 Bft) 98,11 %
07.08.2016 19:04 23,5 C 47 % 1024,0 hPa 0,0 l/m 2,1 km/h (1 Bft) W 276 2 min 0,000 mm 0,0 UV-I 148 W/m 11,5 C 23,5 C 3,2 km/h (1 Bft) 97,87 %
07.08.2016 19:06 23,4 C 49 % 1024,0 hPa 0,0 l/m 1,5 km/h (1 Bft) W 276 2 min 0,000 mm 0,0 UV-I 143 W/m 12,1 C 23,4 C 3,2 km/h (1 Bft) 100,00 %
07.08.2016 19:08 23,4 C 47 % 1024,0 hPa 0,0 l/m 1,5 km/h (1 Bft) W 276 2 min 0,000 mm 0,0 UV-I 136 W/m 11,4 C 23,4 C 3,2 km/h (1 Bft) 100,00 %
07.08.2016 19:10 23,4 C 47 % 1024,0 hPa 0,0 l/m 2,0 km/h (1 Bft) W 276 2 min 0,000 mm 0,0 UV-I 131 W/m 11,4 C 23,4 C 3,2 km/h (1 Bft) 98,11 %
07.08.2016 19:12 23,4 C 48 % 1023,9 hPa 0,0 l/m 1,6 km/h (1 Bft) W 276 2 min 0,000 mm 0,0 UV-I 126 W/m 11,8 C 23,4 C 3,2 km/h (1 Bft) 100,00 %
07.08.2016 19:14 23,4 C 48 % 1023,9 hPa 0,0 l/m 2,3 km/h (1 Bft) W 277 2 min 0,000 mm 0,0 UV-I 119 W/m 11,8 C 23,4 C 3,2 km/h (1 Bft) 100,00 %
07.08.2016 19:16 23,3 C 48 % 1024,0 hPa 0,0 l/m 1,4 km/h (1 Bft) W-NW 282 2 min 0,000 mm 0,0 UV-I 114 W/m 11,7 C 23,3 C 3,2 km/h (1 Bft) 100,00 %
07.08.2016 19:18 23,3 C 49 % 1024,0 hPa 0,0 l/m 2,1 km/h (1 Bft) W 281 2 min 0,000 mm 0,0 UV-I 109 W/m 12,0 C 23,3 C 3,2 km/h (1 Bft) 100,00 %
07.08.2016 19:20 23,3 C 49 % 1023,9 hPa 0,0 l/m 1,0 km/h (0 Bft) W-NW 282 2 min 0,000 mm 0,0 UV-I 103 W/m 12,0 C 23,3 C 4,8 km/h (1 Bft) 100,00 %
07.08.2016 19:22 23,2 C 48 % 1023,9 hPa 0,0 l/m 0,7 km/h (0 Bft) W 281 2 min 0,000 mm 0,0 UV-I 98 W/m 11,6 C 23,2 C 1,6 km/h (1 Bft) 98,00 %
07.08.2016 19:24 23,1 C 50 % 1023,9 hPa 0,0 l/m 1,2 km/h (1 Bft) W-NW 285 2 min 0,000 mm 0,0 UV-I 93 W/m 12,1 C 23,1 C 3,2 km/h (1 Bft) 100,00 %
07.08.2016 19:26 23,1 C 48 % 1023,9 hPa 0,0 l/m 2,3 km/h (1 Bft) W-SW 258 2 min 0,000 mm 0,0 UV-I 87 W/m 11,5 C 23,1 C 4,8 km/h (1 Bft) 100,00 %
07.08.2016 19:28 23,1 C 50 % 1023,9 hPa 0,0 l/m 1,7 km/h (1 Bft) W-SW 258 0 min 0,000 mm 0,0 UV-I 83 W/m 12,1 C 23,1 C 3,2 km/h (1 Bft) 100,00 %
07.08.2016 19:30 22,9 C 52 % 1023,8 hPa 0,0 l/m 1,4 km/h (1 Bft) W-SW 258 0 min 0,000 mm 0,0 UV-I 77 W/m 12,5 C 22,9 C 3,2 km/h (1 Bft) 100,00 %
07.08.2016 19:32 22,8 C 52 % 1023,9 hPa 0,0 l/m 2,0 km/h (1 Bft) W-SW 258 0 min 0,000 mm 0,0 UV-I 72 W/m 12,4 C 22,8 C 3,2 km/h (1 Bft) 100,00 %
07.08.2016 19:34 22,8 C 51 % 1023,9 hPa 0,0 l/m 1,5 km/h (1 Bft) W-SW 258 0 min 0,000 mm 0,0 UV-I 67 W/m 12,1 C 22,8 C 3,2 km/h (1 Bft) 100,00 %
07.08.2016 19:36 22,9 C 49 % 1023,8 hPa 0,0 l/m 1,2 km/h (1 Bft) W-SW 258 0 min 0,000 mm 0,0 UV-I 63 W/m 11,6 C 22,9 C 3,2 km/h (1 Bft) 98,00 %
07.08.2016 19:38 22,9 C 50 % 1023,8 hPa 0,0 l/m 1,4 km/h (1 Bft) W-SW 258 0 min 0,000 mm 0,0 UV-I 60 W/m 11,9 C 22,9 C 3,2 km/h (1 Bft) 100,00 %
07.08.2016 19:40 22,8 C 53 % 1023,7 hPa 0,0 l/m 1,4 km/h (1 Bft) W-SW 258 0 min 0,000 mm 0,0 UV-I 54 W/m 12,7 C 22,8 C 3,2 km/h (1 Bft) 98,00 %
07.08.2016 19:42 22,8 C 52 % 1023,7 hPa 0,0 l/m 0,9 km/h (0 Bft) W-SW 258 0 min 0,000 mm 0,0 UV-I 51 W/m 12,4 C 22,8 C 3,2 km/h (1 Bft) 100,00 %
07.08.2016 19:44 22,7 C 52 % 1023,7 hPa 0,0 l/m 0,7 km/h (0 Bft) W-SW 258 0 min 0,000 mm 0,0 UV-I 46 W/m 12,3 C 22,7 C 3,2 km/h (1 Bft) 97,56 %
07.08.2016 19:46 22,7 C 53 % 1023,6 hPa 0,0 l/m 0,8 km/h (0 Bft) W-SW 258 0 min 0,000 mm 0,0 UV-I 43 W/m 12,6 C 22,7 C 1,6 km/h (1 Bft) 93,62 %
07.08.2016 19:48 22,6 C 52 % 1023,7 hPa 0,0 l/m 0,5 km/h (0 Bft) W-SW 258 0 min 0,000 mm 0,0 UV-I 40 W/m 12,2 C 22,6 C 1,6 km/h (1 Bft) 97,87 %
07.08.2016 19:50 22,6 C 54 % 1023,7 hPa 0,0 l/m 0,4 km/h (0 Bft) W-SW 258 0 min 0,000 mm 0,0 UV-I 36 W/m 12,8 C 22,6 C 1,6 km/h (1 Bft) 93,62 %
07.08.2016 19:52 22,4 C 54 % 1023,7 hPa 0,0 l/m 0,6 km/h (0 Bft) W-SW 258 0 min 0,000 mm 0,0 UV-I 32 W/m 12,6 C 22,4 C 1,6 km/h (1 Bft) 98,00 %
07.08.2016 19:54 22,4 C 53 % 1023,7 hPa 0,0 l/m 1,5 km/h (1 Bft) W-SW 258 0 min 0,000 mm 0,0 UV-I 29 W/m 12,3 C 22,4 C 3,2 km/h (1 Bft) 97,87 %
07.08.2016 19:56 22,2 C 56 % 1023,6 hPa 0,0 l/m 0,8 km/h (0 Bft) W-SW 258 0 min 0,000 mm 0,0 UV-I 25 W/m 13,0 C 22,2 C 1,6 km/h (1 Bft) 97,62 %
07.08.2016 19:58 22,1 C 57 % 1023,7 hPa 0,0 l/m 0,5 km/h (0 Bft) W-SW 258 0 min 0,000 mm 0,0 UV-I 20 W/m 13,2 C 22,1 C 1,6 km/h (1 Bft) 98,18 %
07.08.2016 20:00 21,9 C 59 % 1023,7 hPa 0,0 l/m 0,0 km/h (0 Bft) W-SW 258 0 min 0,076 mm 0,0 UV-I 19 W/m 13,5 C 21,9 C 0,0 km/h (0 Bft) 95,74 %
07.08.2016 20:02 21,8 C 59 % 1023,7 hPa 0,0 l/m 0,1 km/h (0 Bft) W-SW 258 0 min 0,000 mm 0,0 UV-I 18 W/m 13,4 C 21,8 C 1,6 km/h (1 Bft) 97,92 %
07.08.2016 20:04 21,6 C 60 % 1023,7 hPa 0,0 l/m 0,0 km/h (0 Bft) W-SW 258 0 min 0,000 mm 0,0 UV-I 17 W/m 13,5 C 21,6 C 0,0 km/h (0 Bft) 93,62 %
07.08.2016 20:06 21,4 C 60 % 1023,6 hPa 0,0 l/m 0,0 km/h (0 Bft) W-SW 258 0 min 0,000 mm 0,0 UV-I 16 W/m 13,3 C 21,4 C 0,0 km/h (0 Bft) 97,37 %
07.08.2016 20:08 21,3 C 62 % 1023,7 hPa 0,0 l/m 0,0 km/h (0 Bft) W-SW 258 0 min 0,000 mm 0,0 UV-I 15 W/m 13,7 C 21,3 C 0,0 km/h (0 Bft) 98,11 %
07.08.2016 20:10 21,3 C 60 % 1023,7 hPa 0,0 l/m 0,0 km/h (0 Bft) W-SW 258 0 min 0,000 mm 0,0 UV-I 14 W/m 13,2 C 21,3 C 0,0 km/h (0 Bft) 98,00 %
07.08.2016 20:12 21,2 C 62 % 1023,6 hPa 0,0 l/m 0,0 km/h (0 Bft) W-SW 258 0 min 0,000 mm 0,0 UV-I 13 W/m 13,6 C 21,2 C 0,0 km/h (0 Bft) 94,74 %
07.08.2016 20:14 21,1 C 62 % 1023,6 hPa 0,0 l/m 0,0 km/h (0 Bft) W-SW 258 0 min 0,000 mm 0,0 UV-I 12 W/m 13,5 C 21,1 C 0,0 km/h (0 Bft) 96,00 %
07.08.2016 20:16 20,9 C 63 % 1023,6 hPa 0,0 l/m 0,1 km/h (0 Bft) W-SW 258 0 min 0,000 mm 0,0 UV-I 12 W/m 13,6 C 20,9 C 1,6 km/h (1 Bft) 96,00 %
07.08.2016 20:18 20,8 C 66 % 1023,6 hPa 0,0 l/m 0,1 km/h (0 Bft) W-SW 258 2 min 0,000 mm 0,0 UV-I 11 W/m 14,2 C 20,8 C 1,6 km/h (1 Bft) 98,00 %
07.08.2016 20:20 20,5 C 65 % 1023,6 hPa 0,0 l/m 0,4 km/h (0 Bft) W-SW 258 0 min 0,000 mm 0,0 UV-I 11 W/m 13,7 C 20,5 C 1,6 km/h (1 Bft) 100,00 %
07.08.2016 20:22 20,3 C 65 % 1023,6 hPa 0,0 l/m 0,1 km/h (0 Bft) W-SW 258 0 min 0,000 mm 0,0 UV-I 9 W/m 13,5 C 20,3 C 1,6 km/h (1 Bft) 100,00 %
07.08.2016 20:24 20,2 C 64 % 1023,6 hPa 0,0 l/m 0,4 km/h (0 Bft) W-SW 258 0 min 0,000 mm 0,0 UV-I 8 W/m 13,2 C 20,2 C 1,6 km/h (1 Bft) 97,87 %
07.08.2016 20:26 20,1 C 64 % 1023,6 hPa 0,0 l/m 1,1 km/h (1 Bft) W-SW 258 0 min 0,000 mm 0,0 UV-I 7 W/m 13,1 C 20,1 C 3,2 km/h (1 Bft) 100,00 %
07.08.2016 20:28 20,1 C 65 % 1023,6 hPa 0,0 l/m 1,5 km/h (1 Bft) W-SW 258 0 min 0,000 mm 0,0 UV-I 5 W/m 13,3 C 20,1 C 3,2 km/h (1 Bft) 100,00 %
07.08.2016 20:30 20,1 C 65 % 1023,6 hPa 0,0 l/m 0,6 km/h (0 Bft) W-SW 258 0 min 0,000 mm 0,0 UV-I 5 W/m 13,3 C 20,1 C 1,6 km/h (1 Bft) 100,00 %
07.08.2016 20:32 19,9 C 69 % 1023,6 hPa 0,0 l/m 0,9 km/h (0 Bft) W-SW 258 0 min 0,000 mm 0,0 UV-I 5 W/m 14,0 C 19,9 C 1,6 km/h (1 Bft) 98,11 %
07.08.2016 20:34 19,7 C 70 % 1023,6 hPa 0,0 l/m 0,5 km/h (0 Bft) W-SW 258 0 min 0,000 mm 0,0 UV-I 3 W/m 14,1 C 19,7 C 1,6 km/h (1 Bft) 100,00 %
07.08.2016 20:36 19,5 C 71 % 1023,6 hPa 0,0 l/m 0,0 km/h (0 Bft) W-SW 258 0 min 0,000 mm 0,0 UV-I 0 W/m 14,1 C 19,5 C 0,0 km/h (0 Bft) 100,00 %
07.08.2016 20:38 19,2 C 71 % 1023,6 hPa 0,0 l/m 0,0 km/h (0 Bft) W-SW 258 0 min 0,000 mm 0,0 UV-I 0 W/m 13,8 C 19,2 C 1,6 km/h (1 Bft) 100,00 %
07.08.2016 20:40 19,1 C 71 % 1023,6 hPa 0,0 l/m 0,0 km/h (0 Bft) W-SW 258 0 min 0,000 mm 0,0 UV-I 0 W/m 13,7 C 19,1 C 0,0 km/h (0 Bft) 100,00 %
07.08.2016 20:42 18,9 C 73 % 1023,6 hPa 0,0 l/m 0,0 km/h (0 Bft) W-SW 258 0 min 0,000 mm 0,0 UV-I 0 W/m 13,9 C 18,9 C 0,0 km/h (0 Bft) 100,00 %
07.08.2016 20:44 18,7 C 72 % 1023,6 hPa 0,0 l/m 0,0 km/h (0 Bft) W-SW 258 0 min 0,000 mm 0,0 UV-I 0 W/m 13,5 C 18,7 C 0,0 km/h (0 Bft) 100,00 %
07.08.2016 20:46 18,7 C 72 % 1023,6 hPa 0,0 l/m 0,1 km/h (0 Bft) W-SW 258 0 min 0,000 mm 0,0 UV-I 0 W/m 13,5 C 18,7 C 1,6 km/h (1 Bft) 100,00 %
07.08.2016 20:48 18,6 C 73 % 1023,7 hPa 0,0 l/m 0,0 km/h (0 Bft) W-SW 258 0 min 0,000 mm 0,0 UV-I 0 W/m 13,7 C 18,6 C 1,6 km/h (1 Bft) 100,00 %
07.08.2016 20:50 18,4 C 73 % 1023,7 hPa 0,0 l/m 0,0 km/h (0 Bft) W-SW 258 0 min 0,000 mm 0,0 UV-I 0 W/m 13,5 C 18,4 C 0,0 km/h (0 Bft) 100,00 %
07.08.2016 20:52 18,3 C 71 % 1023,7 hPa 0,0 l/m 0,0 km/h (0 Bft) W-SW 258 0 min 0,000 mm 0,0 UV-I 0 W/m 12,9 C 18,3 C 0,0 km/h (0 Bft) 100,00 %
07.08.2016 20:54 18,4 C 71 % 1023,7 hPa 0,0 l/m 0,0 km/h (0 Bft) W-SW 258 0 min 0,000 mm 0,0 UV-I 0 W/m 13,0 C 18,4 C 0,0 km/h (0 Bft) 100,00 %
07.08.2016 20:56 18,4 C 72 % 1023,7 hPa 0,0 l/m 0,0 km/h (0 Bft) W-SW 258 0 min 0,000 mm 0,0 UV-I 0 W/m 13,3 C 18,4 C 0,0 km/h (0 Bft) 98,00 %
07.08.2016 20:58 18,4 C 73 % 1023,7 hPa 0,0 l/m 0,0 km/h (0 Bft) W-SW 258 0 min 0,000 mm 0,0 UV-I 0 W/m 13,5 C 18,4 C 0,0 km/h (0 Bft) 100,00 %
07.08.2016 21:00 18,3 C 73 % 1023,7 hPa 0,0 l/m 0,0 km/h (0 Bft) W-SW 258 0 min 0,000 mm 0,0 UV-I 0 W/m 13,4 C 18,3 C 0,0 km/h (0 Bft) 98,00 %
07.08.2016 21:02 18,2 C 73 % 1023,7 hPa 0,0 l/m 0,0 km/h (0 Bft) W-SW 258 0 min 0,000 mm 0,0 UV-I 0 W/m 13,3 C 18,2 C 0,0 km/h (0 Bft) 97,87 %
07.08.2016 21:04 18,1 C 75 % 1023,7 hPa 0,0 l/m 0,0 km/h (0 Bft) W-SW 258 0 min 0,000 mm 0,0 UV-I 0 W/m 13,6 C 18,1 C 0,0 km/h (0 Bft) 100,00 %
07.08.2016 21:06 17,9 C 77 % 1023,8 hPa 0,0 l/m 0,0 km/h (0 Bft) W-SW 258 0 min 0,000 mm 0,0 UV-I 0 W/m 13,8 C 17,9 C 0,0 km/h (0 Bft) 97,87 %
07.08.2016 21:08 17,7 C 79 % 1023,7 hPa 0,0 l/m 0,0 km/h (0 Bft) W-SW 258 0 min 0,000 mm 0,0 UV-I 0 W/m 14,0 C 17,7 C 0,0 km/h (0 Bft) 100,00 %
07.08.2016 21:10 17,4 C 79 % 1023,7 hPa 0,0 l/m 0,0 km/h (0 Bft) W-SW 258 0 min 0,000 mm 0,0 UV-I 0 W/m 13,7 C 17,4 C 0,0 km/h (0 Bft) 100,00 %
07.08.2016 21:12 17,4 C 78 % 1023,7 hPa 0,0 l/m 0,4 km/h (0 Bft) W-SW 258 0 min 0,000 mm 0,0 UV-I 0 W/m 13,5 C 17,4 C 1,6 km/h (1 Bft) 95,74 %
07.08.2016 21:14 17,3 C 78 % 1023,8 hPa 0,0 l/m 1,6 km/h (1 Bft) W-SW 258 0 min 0,000 mm 0,0 UV-I 0 W/m 13,4 C 17,3 C 3,2 km/h (1 Bft) 98,00 %
07.08.2016 21:16 17,3 C 77 % 1023,8 hPa 0,0 l/m 1,6 km/h (1 Bft) W-SW 254 0 min 0,000 mm 0,0 UV-I 0 W/m 13,2 C 17,3 C 3,2 km/h (1 Bft) 100,00 %
07.08.2016 21:18 17,3 C 76 % 1023,8 hPa 0,0 l/m 2,6 km/h (1 Bft) W-SW 247 0 min 0,000 mm 0,0 UV-I 0 W/m 13,0 C 17,3 C 4,8 km/h (1 Bft) 95,74 %
07.08.2016 21:20 17,3 C 76 % 1023,8 hPa 0,0 l/m 2,5 km/h (1 Bft) W-SW 246 0 min 0,000 mm 0,0 UV-I 0 W/m 13,0 C 17,3 C 3,2 km/h (1 Bft) 100,00 %
07.08.2016 21:22 17,4 C 75 % 1023,8 hPa 0,0 l/m 3,0 km/h (1 Bft) W-SW 240 0 min 0,000 mm 0,0 UV-I 0 W/m 12,9 C 17,4 C 4,8 km/h (1 Bft) 100,00 %
07.08.2016 21:24 17,6 C 74 % 1023,8 hPa 0,0 l/m 1,9 km/h (1 Bft) W-SW 238 0 min 0,000 mm 0,0 UV-I 0 W/m 12,9 C 17,6 C 3,2 km/h (1 Bft) 100,00 %
07.08.2016 21:26 17,6 C 74 % 1023,8 hPa 0,0 l/m 1,4 km/h (1 Bft) W-SW 238 0 min 0,000 mm 0,0 UV-I 0 W/m 12,9 C 17,6 C 3,2 km/h (1 Bft) 100,00 %
07.08.2016 21:28 17,7 C 73 % 1023,8 hPa 0,0 l/m 1,3 km/h (1 Bft) W-SW 238 0 min 0,000 mm 0,0 UV-I 0 W/m 12,8 C 17,7 C 3,2 km/h (1 Bft) 100,00 %
07.08.2016 21:30 17,7 C 74 % 1023,8 hPa 0,0 l/m 0,6 km/h (0 Bft) W-SW 238 0 min 0,000 mm 0,0 UV-I 0 W/m 13,0 C 17,7 C 1,6 km/h (1 Bft) 97,87 %
07.08.2016 21:32 17,6 C 75 % 1023,7 hPa 0,0 l/m 1,0 km/h (0 Bft) W-SW 238 0 min 0,000 mm 0,0 UV-I 0 W/m 13,1 C 17,6 C 1,6 km/h (1 Bft) 100,00 %
07.08.2016 21:34 17,4 C 76 % 1023,7 hPa 0,0 l/m 0,6 km/h (0 Bft) W-SW 238 0 min 0,000 mm 0,0 UV-I 0 W/m 13,1 C 17,4 C 1,6 km/h (1 Bft) 100,00 %
07.08.2016 21:36 17,3 C 77 % 1023,7 hPa 0,0 l/m 0,3 km/h (0 Bft) W-SW 238 0 min 0,000 mm 0,0 UV-I 0 W/m 13,2 C 17,3 C 1,6 km/h (1 Bft) 100,00 %
07.08.2016 21:38 17,2 C 78 % 1023,7 hPa 0,0 l/m 1,1 km/h (1 Bft) W-SW 238 0 min 0,000 mm 0,0 UV-I 0 W/m 13,3 C 17,2 C 3,2 km/h (1 Bft) 100,00 %
07.08.2016 21:40 17,1 C 78 % 1023,7 hPa 0,0 l/m 2,4 km/h (1 Bft) W-SW 238 0 min 0,000 mm 0,0 UV-I 0 W/m 13,2 C 17,1 C 3,2 km/h (1 Bft) 100,00 %
07.08.2016 21:42 17,1 C 78 % 1023,7 hPa 0,0 l/m 1,2 km/h (1 Bft) W-SW 238 0 min 0,000 mm 0,0 UV-I 0 W/m 13,2 C 17,1 C 3,2 km/h (1 Bft) 100,00 %
07.08.2016 21:44 17,0 C 79 % 1023,8 hPa 0,0 l/m 0,4 km/h (0 Bft) W-SW 238 0 min 0,000 mm 0,0 UV-I 0 W/m 13,3 C 17,0 C 1,6 km/h (1 Bft) 100,00 %
07.08.2016 21:46 16,9 C 77 % 1023,8 hPa 0,0 l/m 1,2 km/h (1 Bft) W-SW 238 0 min 0,000 mm 0,0 UV-I 0 W/m 12,8 C 16,9 C 3,2 km/h (1 Bft) 94,00 %
07.08.2016 21:48 17,1 C 75 % 1023,8 hPa 0,0 l/m 1,7 km/h (1 Bft) SW 222 0 min 0,000 mm 0,0 UV-I 0 W/m 12,6 C 17,1 C 3,2 km/h (1 Bft) 97,87 %
07.08.2016 21:50 17,2 C 75 % 1023,8 hPa 0,0 l/m 1,2 km/h (1 Bft) SW 222 0 min 0,000 mm 0,0 UV-I 0 W/m 12,7 C 17,2 C 3,2 km/h (1 Bft) 100,00 %
07.08.2016 21:52 17,3 C 75 % 1023,8 hPa 0,0 l/m 0,7 km/h (0 Bft) SW 222 0 min 0,000 mm 0,0 UV-I 0 W/m 12,8 C 17,3 C 1,6 km/h (1 Bft) 95,52 %
07.08.2016 21:54 17,3 C 75 % 1023,8 hPa 0,0 l/m 0,7 km/h (0 Bft) SW 222 0 min 0,000 mm 0,0 UV-I 0 W/m 12,8 C 17,3 C 1,6 km/h (1 Bft) 98,00 %
07.08.2016 21:56 17,2 C 77 % 1023,8 hPa 0,0 l/m 0,4 km/h (0 Bft) SW 222 0 min 0,000 mm 0,0 UV-I 0 W/m 13,1 C 17,2 C 1,6 km/h (1 Bft) 94,87 %
07.08.2016 21:58 17,0 C 78 % 1023,8 hPa 0,0 l/m 0,2 km/h (0 Bft) SW 222 0 min 0,000 mm 0,0 UV-I 0 W/m 13,1 C 17,0 C 1,6 km/h (1 Bft) 98,00 %
07.08.2016 22:00 16,8 C 79 % 1023,8 hPa 0,0 l/m 0,0 km/h (0 Bft) SW 222 0 min 0,000 mm 0,0 UV-I 0 W/m 13,1 C 16,8 C 0,0 km/h (0 Bft) 97,87 %
07.08.2016 22:02 16,6 C 80 % 1023,8 hPa 0,0 l/m 0,7 km/h (0 Bft) SW 222 0 min 0,000 mm 0,0 UV-I 0 W/m 13,1 C 16,6 C 1,6 km/h (1 Bft) 95,83 %
07.08.2016 22:04 16,5 C 81 % 1023,8 hPa 0,0 l/m 0,3 km/h (0 Bft) SW 222 0 min 0,000 mm 0,0 UV-I 0 W/m 13,2 C 16,5 C 1,6 km/h (1 Bft) 97,87 %
07.08.2016 22:06 16,4 C 81 % 1023,8 hPa 0,0 l/m 0,0 km/h (0 Bft) SW 222 0 min 0,000 mm 0,0 UV-I 0 W/m 13,1 C 16,4 C 0,0 km/h (0 Bft) 96,23 %
07.08.2016 22:08 16,4 C 82 % 1023,8 hPa 0,0 l/m 0,4 km/h (0 Bft) SW 222 0 min 0,000 mm 0,0 UV-I 0 W/m 13,3 C 16,4 C 1,6 km/h (1 Bft) 97,37 %
07.08.2016 22:10 16,4 C 82 % 1023,7 hPa 0,0 l/m 1,1 km/h (1 Bft) SW 222 0 min 0,000 mm 0,0 UV-I 0 W/m 13,3 C 16,4 C 1,6 km/h (1 Bft) 98,11 %
07.08.2016 22:12 16,4 C 81 % 1023,7 hPa 0,0 l/m 1,7 km/h (1 Bft) SW 222 0 min 0,000 mm 0,0 UV-I 0 W/m 13,1 C 16,4 C 3,2 km/h (1 Bft) 93,75 %
07.08.2016 22:14 16,3 C 81 % 1023,8 hPa 0,0 l/m 2,4 km/h (1 Bft) SW 222 0 min 0,000 mm 0,0 UV-I 0 W/m 13,0 C 16,3 C 3,2 km/h (1 Bft) 97,87 %
07.08.2016 22:16 16,3 C 81 % 1023,7 hPa 0,0 l/m 1,6 km/h (1 Bft) SW 222 0 min 0,000 mm 0,0 UV-I 0 W/m 13,0 C 16,3 C 3,2 km/h (1 Bft) 97,87 %
07.08.2016 22:18 16,2 C 82 % 1023,7 hPa 0,0 l/m 0,8 km/h (0 Bft) SW 221 0 min 0,000 mm 0,0 UV-I 0 W/m 13,1 C 16,2 C 1,6 km/h (1 Bft) 94,74 %
07.08.2016 22:20 16,3 C 80 % 1023,7 hPa 0,0 l/m 1,5 km/h (1 Bft) S-SW 201 0 min 0,000 mm 0,0 UV-I 0 W/m 12,8 C 16,3 C 3,2 km/h (1 Bft) 98,08 %
07.08.2016 22:22 16,3 C 79 % 1023,8 hPa 0,0 l/m 4,8 km/h (1 Bft) S-SO 166 0 min 0,000 mm 0,0 UV-I 0 W/m 12,6 C 16,3 C 8,0 km/h (2 Bft) 100,00 %
07.08.2016 22:24 16,4 C 79 % 1023,8 hPa 0,0 l/m 3,8 km/h (1 Bft) S 170 0 min 0,000 mm 0,0 UV-I 0 W/m 12,7 C 16,4 C 6,4 km/h (2 Bft) 97,37 %
07.08.2016 22:26 16,3 C 78 % 1023,8 hPa 0,0 l/m 3,4 km/h (1 Bft) S 173 0 min 0,000 mm 0,0 UV-I 0 W/m 12,5 C 16,3 C 6,4 km/h (2 Bft) 100,00 %
07.08.2016 22:28 16,3 C 78 % 1023,7 hPa 0,0 l/m 4,9 km/h (1 Bft) S 186 0 min 0,000 mm 0,0 UV-I 0 W/m 12,5 C 16,3 C 6,4 km/h (2 Bft) 100,00 %
07.08.2016 22:30 16,5 C 77 % 1023,7 hPa 0,0 l/m 5,9 km/h (2 Bft) S 171 0 min 0,000 mm 0,0 UV-I 0 W/m 12,5 C 16,5 C 8,0 km/h (2 Bft) 96,00 %
07.08.2016 22:32 16,7 C 77 % 1023,8 hPa 0,0 l/m 4,8 km/h (1 Bft) S-SW 194 0 min 0,000 mm 0,0 UV-I 0 W/m 12,6 C 16,7 C 8,0 km/h (2 Bft) 100,00 %
07.08.2016 22:34 16,8 C 77 % 1023,8 hPa 0,0 l/m 5,6 km/h (1 Bft) S 185 0 min 0,000 mm 0,0 UV-I 0 W/m 12,7 C 16,8 C 8,0 km/h (2 Bft) 100,00 %
07.08.2016 22:36 16,9 C 76 % 1023,8 hPa 0,0 l/m 5,1 km/h (1 Bft) S 178 0 min 0,000 mm 0,0 UV-I 0 W/m 12,6 C 16,9 C 8,0 km/h (2 Bft) 100,00 %
07.08.2016 22:38 16,9 C 76 % 1023,8 hPa 0,0 l/m 5,1 km/h (1 Bft) S 179 0 min 0,000 mm 0,0 UV-I 0 W/m 12,6 C 16,9 C 8,0 km/h (2 Bft) 98,00 %
07.08.2016 22:40 16,9 C 76 % 1023,8 hPa 0,0 l/m 4,7 km/h (1 Bft) S 181 0 min 0,000 mm 0,0 UV-I 0 W/m 12,6 C 16,9 C 8,0 km/h (2 Bft) 100,00 %
07.08.2016 22:42 16,9 C 77 % 1023,8 hPa 0,0 l/m 4,8 km/h (1 Bft) S 181 0 min 0,000 mm 0,0 UV-I 0 W/m 12,8 C 16,9 C 6,4 km/h (2 Bft) 100,00 %
07.08.2016 22:44 16,8 C 77 % 1023,8 hPa 0,0 l/m 4,2 km/h (1 Bft) S 181 0 min 0,000 mm 0,0 UV-I 0 W/m 12,7 C 16,8 C 4,8 km/h (1 Bft) 100,00 %
07.08.2016 22:46 16,8 C 77 % 1023,7 hPa 0,0 l/m 5,1 km/h (1 Bft) S 169 0 min 0,000 mm 0,0 UV-I 0 W/m 12,7 C 16,8 C 8,0 km/h (2 Bft) 98,00 %
07.08.2016 22:48 16,7 C 79 % 1023,7 hPa 0,0 l/m 5,0 km/h (1 Bft) S 171 0 min 0,000 mm 0,0 UV-I 0 W/m 13,0 C 16,7 C 6,4 km/h (2 Bft) 100,00 %
07.08.2016 22:50 16,6 C 79 % 1023,7 hPa 0,0 l/m 5,0 km/h (1 Bft) S 172 0 min 0,000 mm 0,0 UV-I 0 W/m 12,9 C 16,6 C 8,0 km/h (2 Bft) 100,00 %
07.08.2016 22:52 16,6 C 79 % 1023,7 hPa 0,0 l/m 5,3 km/h (1 Bft) S 171 0 min 0,000 mm 0,0 UV-I 0 W/m 12,9 C 16,6 C 8,0 km/h (2 Bft) 100,00 %
07.08.2016 22:54 16,6 C 78 % 1023,7 hPa 0,0 l/m 5,1 km/h (1 Bft) S 176 0 min 0,000 mm 0,0 UV-I 0 W/m 12,7 C 16,6 C 6,4 km/h (2 Bft) 100,00 %
07.08.2016 22:56 16,6 C 78 % 1023,7 hPa 0,0 l/m 4,5 km/h (1 Bft) S 173 0 min 0,000 mm 0,0 UV-I 0 W/m 12,7 C 16,6 C 8,0 km/h (2 Bft) 100,00 %
07.08.2016 22:58 16,6 C 78 % 1023,7 hPa 0,0 l/m 5,7 km/h (1 Bft) S 180 0 min 0,000 mm 0,0 UV-I 0 W/m 12,7 C 16,6 C 8,0 km/h (2 Bft) 100,00 %
07.08.2016 23:00 16,6 C 78 % 1023,7 hPa 0,0 l/m 5,3 km/h (1 Bft) S 171 0 min 0,025 mm 0,0 UV-I 0 W/m 12,7 C 16,6 C 8,0 km/h (2 Bft) 98,00 %
07.08.2016 23:02 16,6 C 78 % 1023,7 hPa 0,0 l/m 5,4 km/h (1 Bft) S 181 0 min 0,000 mm 0,0 UV-I 0 W/m 12,7 C 16,6 C 6,4 km/h (2 Bft) 98,00 %
07.08.2016 23:04 16,6 C 78 % 1023,7 hPa 0,0 l/m 6,1 km/h (2 Bft) S 171 0 min 0,000 mm 0,0 UV-I 0 W/m 12,7 C 16,6 C 8,0 km/h (2 Bft) 100,00 %
07.08.2016 23:06 16,6 C 79 % 1023,7 hPa 0,0 l/m 4,9 km/h (1 Bft) S 181 0 min 0,000 mm 0,0 UV-I 0 W/m 12,9 C 16,6 C 8,0 km/h (2 Bft) 100,00 %
07.08.2016 23:08 16,4 C 79 % 1023,7 hPa 0,0 l/m 4,7 km/h (1 Bft) S 177 0 min 0,000 mm 0,0 UV-I 0 W/m 12,7 C 16,4 C 6,4 km/h (2 Bft) 100,00 %
07.08.2016 23:10 16,4 C 79 % 1023,7 hPa 0,0 l/m 4,5 km/h (1 Bft) S 178 0 min 0,000 mm 0,0 UV-I 0 W/m 12,7 C 16,4 C 6,4 km/h (2 Bft) 100,00 %
07.08.2016 23:12 16,3 C 80 % 1023,7 hPa 0,0 l/m 4,0 km/h (1 Bft) S 177 0 min 0,000 mm 0,0 UV-I 0 W/m 12,8 C 16,3 C 4,8 km/h (1 Bft) 98,00 %
07.08.2016 23:14 16,2 C 80 % 1023,6 hPa 0,0 l/m 3,8 km/h (1 Bft) S 177 0 min 0,000 mm 0,0 UV-I 0 W/m 12,7 C 16,2 C 4,8 km/h (1 Bft) 100,00 %
07.08.2016 23:16 16,2 C 80 % 1023,6 hPa 0,0 l/m 3,9 km/h (1 Bft) S 177 0 min 0,000 mm 0,0 UV-I 0 W/m 12,7 C 16,2 C 4,8 km/h (1 Bft) 100,00 %
07.08.2016 23:18 16,2 C 80 % 1023,6 hPa 0,0 l/m 4,1 km/h (1 Bft) S 177 0 min 0,000 mm 0,0 UV-I 0 W/m 12,7 C 16,2 C 6,4 km/h (2 Bft) 100,00 %
07.08.2016 23:20 16,1 C 80 % 1023,6 hPa 0,0 l/m 4,1 km/h (1 Bft) S 176 0 min 0,000 mm 0,0 UV-I 0 W/m 12,6 C 16,1 C 6,4 km/h (2 Bft) 100,00 %
07.08.2016 23:22 16,1 C 80 % 1023,5 hPa 0,0 l/m 4,1 km/h (1 Bft) S 175 0 min 0,000 mm 0,0 UV-I 0 W/m 12,6 C 16,1 C 4,8 km/h (1 Bft) 100,00 %
07.08.2016 23:24 16,1 C 80 % 1023,6 hPa 0,0 l/m 6,0 km/h (2 Bft) S 185 0 min 0,000 mm 0,0 UV-I 0 W/m 12,6 C 16,1 C 8,0 km/h (2 Bft) 100,00 %
07.08.2016 23:26 16,1 C 80 % 1023,6 hPa 0,0 l/m 5,3 km/h (1 Bft) S 173 0 min 0,000 mm 0,0 UV-I 0 W/m 12,6 C 16,1 C 8,0 km/h (2 Bft) 100,00 %
07.08.2016 23:28 16,1 C 80 % 1023,6 hPa 0,0 l/m 5,6 km/h (1 Bft) S 171 0 min 0,000 mm 0,0 UV-I 0 W/m 12,6 C 16,1 C 8,0 km/h (2 Bft) 100,00 %
07.08.2016 23:30 16,0 C 81 % 1023,6 hPa 0,0 l/m 4,4 km/h (1 Bft) S 178 0 min 0,000 mm 0,0 UV-I 0 W/m 12,7 C 16,0 C 6,4 km/h (2 Bft) 100,00 %
07.08.2016 23:32 16,0 C 81 % 1023,6 hPa 0,0 l/m 4,0 km/h (1 Bft) S 178 0 min 0,000 mm 0,0 UV-I 0 W/m 12,7 C 16,0 C 4,8 km/h (1 Bft) 100,00 %
07.08.2016 23:34 16,0 C 81 % 1023,5 hPa 0,0 l/m 4,4 km/h (1 Bft) S 178 0 min 0,000 mm 0,0 UV-I 0 W/m 12,7 C 16,0 C 6,4 km/h (2 Bft) 94,74 %
07.08.2016 23:36 15,9 C 81 % 1023,5 hPa 0,0 l/m 4,0 km/h (1 Bft) S 178 0 min 0,000 mm 0,0 UV-I 0 W/m 12,6 C 15,9 C 4,8 km/h (1 Bft) 96,00 %
07.08.2016 23:38 15,9 C 81 % 1023,5 hPa 0,0 l/m 4,3 km/h (1 Bft) S 179 0 min 0,000 mm 0,0 UV-I 0 W/m 12,6 C 15,9 C 4,8 km/h (1 Bft) 100,00 %
07.08.2016 23:40 15,8 C 82 % 1023,5 hPa 0,0 l/m 4,7 km/h (1 Bft) S 178 0 min 0,000 mm 0,0 UV-I 0 W/m 12,7 C 15,8 C 6,4 km/h (2 Bft) 95,12 %
07.08.2016 23:42 15,8 C 82 % 1023,5 hPa 0,0 l/m 4,8 km/h (1 Bft) S 178 0 min 0,000 mm 0,0 UV-I 0 W/m 12,7 C 15,8 C 6,4 km/h (2 Bft) 97,87 %
07.08.2016 23:44 15,7 C 82 % 1023,5 hPa 0,0 l/m 5,3 km/h (1 Bft) S 178 0 min 0,000 mm 0,0 UV-I 0 W/m 12,6 C 15,7 C 6,4 km/h (2 Bft) 100,00 %
07.08.2016 23:46 15,7 C 83 % 1023,5 hPa 0,0 l/m 5,7 km/h (1 Bft) S 188 0 min 0,000 mm 0,0 UV-I 0 W/m 12,8 C 15,7 C 8,0 km/h (2 Bft) 97,22 %
07.08.2016 23:48 15,7 C 82 % 1023,5 hPa 0,0 l/m 5,0 km/h (1 Bft) S 187 0 min 0,000 mm 0,0 UV-I 0 W/m 12,6 C 15,7 C 6,4 km/h (2 Bft) 93,75 %
07.08.2016 23:50 15,7 C 82 % 1023,6 hPa 0,0 l/m 5,4 km/h (1 Bft) S-SW 192 0 min 0,000 mm 0,0 UV-I 0 W/m 12,6 C 15,7 C 6,4 km/h (2 Bft) 97,56 %
07.08.2016 23:52 15,7 C 82 % 1023,5 hPa 0,0 l/m 5,3 km/h (1 Bft) S-SW 194 0 min 0,000 mm 0,0 UV-I 0 W/m 12,6 C 15,7 C 6,4 km/h (2 Bft) 95,74 %
07.08.2016 23:54 15,7 C 82 % 1023,5 hPa 0,0 l/m 4,2 km/h (1 Bft) S-SW 192 0 min 0,000 mm 0,0 UV-I 0 W/m 12,6 C 15,7 C 6,4 km/h (2 Bft) 96,23 %
07.08.2016 23:56 15,7 C 82 % 1023,5 hPa 0,0 l/m 4,8 km/h (1 Bft) S-SW 196 0 min 0,000 mm 0,0 UV-I 0 W/m 12,6 C 15,7 C 6,4 km/h (2 Bft) 95,74 %
07.08.2016 23:58 15,6 C 82 % 1023,5 hPa 0,0 l/m 4,7 km/h (1 Bft) S-SW 195 0 min 0,000 mm 0,0 UV-I 0 W/m 12,5 C 15,6 C 6,4 km/h (2 Bft) 97,44 %
_ Min-Zeit 04:58 17:26 23:22 - 02:42 - - - - - - 14:56 04:58 02:48 00:02
Minimum _ 12,8 C 41 % 1023,5 hPa - 0,0 km/h (0 Bft) - - - - - - 9,9 C 12,8 C 0,0 km/h (0 Bft) 10,00 %
_ Max-Zeit 17:30 04:48 09:22 00:00 15:52 - - 06:00 14:00 13:16 14:18 11:14 17:30 15:52 00:34
Maximum _ 24,2 C 96 % 1028,0 hPa 0,0 l/m 13,4 km/h
SW (3 Bft)
- - 2 min 0,559 mm 6,8 UV-I 964 W/m 15,9 C 24,2 C 22,5 km/h
W-SW (4 Bft)
100,00 %
Durchschnitt _ 18,6 C 72 % 1026,0 hPa #0,0 l/m 4,8 km/h (1 Bft) W-SW - #11:44 h #4,521 mm 3,5 UV-I 459 W/m 13,0 C 18,4 C 8,4 km/h (2 Bft) 98,52 %